SIA392 WSSS-LTFM

Flight info

Callsign SIA392
Flight time 10h 33m
Altitude 34000
Route AROSO5B AROSO Y513 KALIL Y501 RINBA Y503 VPL P628 KAGUL/N0503F360 P628 RK G202 ZB L750 GODSI/N0493F380 L750 RANAH A846 RUBAD B475 DOLOS B449 MAMED P130 BODKA M747 LUSAL M11 REBLO/N0480F280 M11 TBN W71 CRM L746 INB W702 GUMRU/N0488F400 UT315 NUGBA NUGB1D
Aircraft A359/H-SDE1E2E3GHIJ1J2J3J5M1P2RWXYZ/LB1D1

Departure

Time 2026-05-04 11:23
Airport Singapore Changi Airport (WSSS)

Arrival

Time 2026-05-04 21:56
Airport İstanbul Airport (LTFM)
Time Latitude Longitude Altitude Speed Heading
2026-05-04 10:57 1.35842 103.98535 37 ft 0 kts 101°
2026-05-04 11:13 1.35842 103.98533 36 ft 2 kts 101°
2026-05-04 11:13 1.35845 103.98509 35 ft 4 kts 84°
2026-05-04 11:14 1.35843 103.98486 35 ft 2 kts 101°
2026-05-04 11:14 1.35848 103.98465 34 ft 4 kts 121°
2026-05-04 11:14 1.35859 103.98452 35 ft 4 kts 165°
2026-05-04 11:16 1.35907 103.98465 34 ft 0 kts 202°
2026-05-04 11:19 1.35443 103.98269 36 ft 25 kts 203°
2026-05-04 11:19 1.35285 103.98202 36 ft 24 kts 203°
2026-05-04 11:19 1.35130 103.98137 36 ft 24 kts 202°
2026-05-04 11:19 1.34979 103.98073 37 ft 23 kts 202°
2026-05-04 11:20 1.34861 103.98024 37 ft 11 kts 203°
2026-05-04 11:20 1.34815 103.97982 37 ft 8 kts 261°
2026-05-04 11:20 1.34828 103.97936 37 ft 6 kts 298°
2026-05-04 11:20 1.34848 103.97895 37 ft 6 kts 294°
2026-05-04 11:22 1.36187 103.98291 37 ft 157 kts 22°
2026-05-04 11:22 1.37296 103.98765 508 ft 173 kts 23°
2026-05-04 11:23 1.38412 103.99253 1261 ft 177 kts 25°
2026-05-04 11:23 1.39562 103.99739 1942 ft 184 kts 23°
2026-05-04 11:24 1.48172 104.03353 3779 ft 244 kts 20°
2026-05-04 11:25 1.49849 104.03702 4100 ft 253 kts 359°
2026-05-04 11:25 1.51591 104.03293 4362 ft 264 kts 335°
2026-05-04 11:25 1.53254 104.02479 4800 ft 268 kts 333°
2026-05-04 11:26 1.56611 104.00763 5786 ft 273 kts 333°
2026-05-04 11:27 1.68862 103.94583 9274 ft 291 kts 334°
2026-05-04 11:28 1.70685 103.93668 9785 ft 294 kts 334°
2026-05-04 11:28 1.72532 103.92743 10133 ft 303 kts 334°
2026-05-04 11:28 1.74456 103.91767 10312 ft 317 kts 332°
2026-05-04 11:28 1.76240 103.90398 10455 ft 332 kts 312°
2026-05-04 11:29 1.77728 103.88577 10640 ft 345 kts 308°
2026-05-04 11:29 1.79201 103.86636 10804 ft 357 kts 308°
2026-05-04 11:29 1.80724 103.84632 10972 ft 368 kts 308°
2026-05-04 11:29 1.82301 103.82570 11130 ft 378 kts 308°
2026-05-04 11:31 1.94091 103.67267 13207 ft 407 kts 308°
2026-05-04 11:33 2.06387 103.51281 15276 ft 421 kts 308°
2026-05-04 11:33 2.07572 103.49742 15450 ft 423 kts 308°
2026-05-04 11:33 2.09370 103.47404 15727 ft 425 kts 308°
2026-05-04 11:34 2.11173 103.45061 16011 ft 427 kts 308°
2026-05-04 11:34 2.12982 103.42704 16275 ft 428 kts 308°
2026-05-04 11:34 2.14574 103.40176 16523 ft 432 kts 295°
2026-05-04 11:34 2.15709 103.37394 16801 ft 434 kts 290°
2026-05-04 11:35 2.16634 103.34517 17070 ft 436 kts 287°
2026-05-04 11:35 2.17458 103.31592 17339 ft 438 kts 285°
2026-05-04 11:35 2.18250 103.28646 17606 ft 440 kts 285°
2026-05-04 11:35 2.19051 103.25688 17867 ft 442 kts 285°
2026-05-04 11:36 2.19873 103.22724 18124 ft 444 kts 286°
2026-05-04 11:36 2.20719 103.19744 18353 ft 445 kts 286°
2026-05-04 11:36 2.21580 103.16765 18583 ft 447 kts 287°
2026-05-04 11:36 2.22452 103.13781 18809 ft 448 kts 287°
2026-05-04 11:37 2.23331 103.10787 19049 ft 449 kts 287°
2026-05-04 11:37 2.24213 103.07783 19262 ft 451 kts 287°
2026-05-04 11:37 2.25098 103.04771 19471 ft 452 kts 287°
2026-05-04 11:37 2.25984 103.01749 19702 ft 453 kts 287°
2026-05-04 11:38 2.26870 102.98724 19917 ft 455 kts 287°
2026-05-04 11:38 2.27761 102.95682 20142 ft 456 kts 287°
2026-05-04 11:38 2.28653 102.92633 20366 ft 458 kts 287°
2026-05-04 11:38 2.29547 102.89577 20579 ft 459 kts 287°
2026-05-04 11:39 2.30445 102.86506 20796 ft 460 kts 287°
2026-05-04 11:39 2.31349 102.83436 21012 ft 462 kts 287°
2026-05-04 11:40 2.36818 102.64756 22342 ft 471 kts 286°
2026-05-04 11:41 2.37737 102.61604 22565 ft 473 kts 286°
2026-05-04 11:41 2.38661 102.58447 22779 ft 474 kts 286°
2026-05-04 11:41 2.39586 102.55275 22999 ft 476 kts 286°
2026-05-04 11:41 2.40515 102.52091 23205 ft 478 kts 286°
2026-05-04 11:42 2.41448 102.48896 23423 ft 479 kts 287°
2026-05-04 11:42 2.42383 102.45695 23611 ft 481 kts 286°
2026-05-04 11:42 2.43322 102.42477 23793 ft 483 kts 286°
2026-05-04 11:42 2.44264 102.39251 23978 ft 484 kts 286°
2026-05-04 11:43 2.45428 102.36092 24153 ft 485 kts 295°
2026-05-04 11:43 2.47102 102.33159 24333 ft 486 kts 306°
2026-05-04 11:43 2.49309 102.30607 24520 ft 487 kts 317°
2026-05-04 11:43 2.51839 102.28352 24722 ft 488 kts 321°
2026-05-04 11:44 2.54477 102.26216 24926 ft 489 kts 322°
2026-05-04 11:44 2.57173 102.24130 25123 ft 490 kts 323°
2026-05-04 11:44 2.59889 102.22058 25346 ft 492 kts 323°
2026-05-04 11:44 2.62612 102.19982 25570 ft 494 kts 323°
2026-05-04 11:45 2.65337 102.17884 25796 ft 495 kts 323°
2026-05-04 11:45 2.68063 102.15764 26025 ft 497 kts 322°
2026-05-04 11:45 2.70790 102.13631 26255 ft 499 kts 322°
2026-05-04 11:45 2.73523 102.11485 26476 ft 501 kts 322°
2026-05-04 11:46 2.76264 102.09331 26720 ft 502 kts 322°
2026-05-04 11:46 2.79017 102.07166 26975 ft 504 kts 322°
2026-05-04 11:46 2.81778 102.04997 27247 ft 505 kts 322°
2026-05-04 11:46 2.84550 102.02819 27478 ft 507 kts 322°
2026-05-04 11:47 2.87292 102.00665 27713 ft 509 kts 322°
2026-05-04 11:47 2.90082 101.98475 27959 ft 511 kts 322°
2026-05-04 11:47 2.92885 101.96274 28194 ft 513 kts 322°
2026-05-04 11:47 2.95694 101.94068 28427 ft 515 kts 322°
2026-05-04 11:48 2.98512 101.91854 28666 ft 516 kts 322°
2026-05-04 11:48 3.01342 101.89632 28872 ft 518 kts 322°
2026-05-04 11:48 3.04182 101.87401 29103 ft 520 kts 322°
2026-05-04 11:48 3.07031 101.85163 29303 ft 521 kts 322°
2026-05-04 11:49 3.09883 101.82921 29559 ft 522 kts 322°
2026-05-04 11:49 3.12731 101.80683 29888 ft 520 kts 322°
2026-05-04 11:49 3.15579 101.78446 30179 ft 519 kts 322°
2026-05-04 11:49 3.18417 101.76215 30436 ft 518 kts 322°
2026-05-04 11:50 3.21246 101.73992 30692 ft 517 kts 322°
2026-05-04 11:50 3.24075 101.71769 30943 ft 517 kts 323°
2026-05-04 11:50 3.26901 101.69548 31191 ft 516 kts 323°
2026-05-04 11:50 3.29720 101.67332 31442 ft 514 kts 323°
2026-05-04 11:51 3.32591 101.65290 31685 ft 513 kts 329°
2026-05-04 11:51 3.35718 101.63594 31926 ft 510 kts 335°
2026-05-04 11:51 3.38918 101.62071 32163 ft 509 kts 336°
2026-05-04 11:51 3.42144 101.60607 32422 ft 508 kts 337°
2026-05-04 11:52 3.45366 101.59181 32675 ft 506 kts 338°
2026-05-04 11:52 3.48594 101.57764 32906 ft 506 kts 338°
2026-05-04 11:52 3.51811 101.56351 33136 ft 504 kts 338°
2026-05-04 11:52 3.55023 101.54937 33366 ft 503 kts 338°
2026-05-04 11:53 3.58222 101.53521 33564 ft 503 kts 338°
2026-05-04 11:53 3.61418 101.52103 33779 ft 502 kts 338°
2026-05-04 11:53 3.64614 101.50683 33869 ft 504 kts 337°
2026-05-04 11:55 3.90371 101.39213 33881 ft 508 kts 338°
2026-05-04 11:56 3.96830 101.36343 33879 ft 508 kts 338°
2026-05-04 11:56 4.03291 101.33471 33883 ft 508 kts 338°
2026-05-04 11:57 4.09752 101.30597 33885 ft 508 kts 338°
2026-05-04 11:57 4.16213 101.27722 33887 ft 508 kts 337°
2026-05-04 11:58 4.22678 101.24845 33885 ft 509 kts 337°
2026-05-04 11:58 4.29150 101.21964 33881 ft 509 kts 337°
2026-05-04 11:59 4.35621 101.19083 33873 ft 509 kts 337°
2026-05-04 11:59 4.42098 101.16198 33866 ft 509 kts 337°
2026-05-04 12:00 4.48580 101.13311 33856 ft 510 kts 337°
2026-05-04 12:00 4.55061 101.10423 33855 ft 510 kts 337°
2026-05-04 12:01 4.61562 101.07555 33857 ft 510 kts 338°
2026-05-04 12:02 4.84338 100.97771 33878 ft 510 kts 338°
2026-05-04 12:03 4.90857 100.94960 33879 ft 510 kts 338°
2026-05-04 12:03 4.97377 100.92147 33881 ft 510 kts 338°
2026-05-04 12:04 5.03905 100.89336 33875 ft 510 kts 338°
2026-05-04 12:04 5.10421 100.86516 33874 ft 510 kts 337°
2026-05-04 12:05 5.16937 100.83696 33872 ft 510 kts 337°
2026-05-04 12:05 5.23450 100.80879 33870 ft 510 kts 337°
2026-05-04 12:06 5.29965 100.78062 33870 ft 510 kts 337°
2026-05-04 12:06 5.36317 100.74920 33867 ft 510 kts 327°
2026-05-04 12:07 5.41722 100.70319 33859 ft 511 kts 316°
2026-05-04 12:07 5.46743 100.65254 33847 ft 511 kts 315°
2026-05-04 12:08 5.51663 100.60168 33840 ft 511 kts 315°
2026-05-04 12:08 5.56626 100.55067 33836 ft 510 kts 315°
2026-05-04 12:09 5.61596 100.49987 33836 ft 510 kts 315°
2026-05-04 12:09 5.66568 100.44919 33837 ft 509 kts 315°
2026-05-04 12:10 5.71534 100.39851 33839 ft 509 kts 315°
2026-05-04 12:10 5.76505 100.34783 33845 ft 509 kts 315°
2026-05-04 12:11 5.81475 100.29718 33847 ft 509 kts 315°
2026-05-04 12:11 5.86440 100.24651 33851 ft 509 kts 315°
2026-05-04 12:12 5.91402 100.19583 33854 ft 509 kts 315°
2026-05-04 12:12 5.96372 100.14506 33857 ft 510 kts 315°
2026-05-04 12:14 6.16271 99.94177 33853 ft 511 kts 315°
2026-05-04 12:15 6.21215 99.89115 33844 ft 511 kts 315°
2026-05-04 12:15 6.26200 99.84010 33838 ft 511 kts 315°
2026-05-04 12:16 6.31185 99.78908 33825 ft 512 kts 314°
2026-05-04 12:16 6.35560 99.73289 33831 ft 511 kts 299°
2026-05-04 12:17 6.38424 99.66756 33829 ft 511 kts 291°
2026-05-04 12:17 6.40911 99.60056 33836 ft 512 kts 290°
2026-05-04 12:18 6.43350 99.53344 33846 ft 511 kts 290°
2026-05-04 12:18 6.45814 99.46641 33855 ft 511 kts 290°
2026-05-04 12:19 6.48296 99.39949 33867 ft 511 kts 290°
2026-05-04 12:19 6.50767 99.33302 33865 ft 511 kts 290°
2026-05-04 12:20 6.53271 99.26562 33865 ft 511 kts 290°
2026-05-04 12:20 6.55752 99.19866 33864 ft 511 kts 290°
2026-05-04 12:21 6.58217 99.13209 33865 ft 511 kts 290°
2026-05-04 12:21 6.60697 99.06517 33864 ft 510 kts 290°
2026-05-04 12:22 6.63174 98.99829 33866 ft 510 kts 290°
2026-05-04 12:22 6.65647 98.93146 33867 ft 510 kts 290°
2026-05-04 12:23 6.68120 98.86462 33866 ft 510 kts 290°
2026-05-04 12:23 6.70592 98.79777 33867 ft 510 kts 290°
2026-05-04 12:24 6.73063 98.73093 33868 ft 510 kts 290°
2026-05-04 12:24 6.75535 98.66403 33868 ft 510 kts 290°
2026-05-04 12:25 6.77606 98.60793 33864 ft 510 kts 290°
2026-05-04 12:25 6.80079 98.54095 33867 ft 511 kts 290°
2026-05-04 12:26 6.82556 98.47380 33865 ft 512 kts 290°
2026-05-04 12:26 6.85037 98.40654 33866 ft 513 kts 290°
2026-05-04 12:27 6.87501 98.33969 33869 ft 513 kts 290°
2026-05-04 12:27 6.89992 98.27195 33864 ft 513 kts 290°
2026-05-04 12:28 6.92474 98.20458 33862 ft 513 kts 290°
2026-05-04 12:28 6.94954 98.13725 33865 ft 513 kts 290°
2026-05-04 12:29 6.97433 98.06993 33864 ft 513 kts 290°
2026-05-04 12:29 7.00738 98.00665 33866 ft 511 kts 308°
2026-05-04 12:30 7.05784 97.95674 33866 ft 510 kts 322°
2026-05-04 12:30 7.11467 97.91387 33864 ft 511 kts 324°
2026-05-04 12:31 7.17195 97.87229 33868 ft 511 kts 324°
2026-05-04 12:31 7.22984 97.82994 33865 ft 511 kts 324°
2026-05-04 12:32 7.31541 97.76667 33868 ft 511 kts 324°
2026-05-04 12:33 7.37265 97.72422 33868 ft 511 kts 324°
2026-05-04 12:33 7.43023 97.68152 33868 ft 510 kts 324°
2026-05-04 12:34 7.48694 97.63946 33866 ft 510 kts 324°
2026-05-04 12:34 7.54399 97.59714 33865 ft 509 kts 324°
2026-05-04 12:35 7.60107 97.55479 33865 ft 509 kts 324°
2026-05-04 12:35 7.65813 97.51246 33865 ft 509 kts 324°
2026-05-04 12:36 7.71529 97.47011 33867 ft 510 kts 324°
2026-05-04 12:36 7.77243 97.42777 33867 ft 510 kts 324°
2026-05-04 12:37 7.82968 97.38532 33868 ft 511 kts 324°
2026-05-04 12:37 7.88699 97.34283 33865 ft 512 kts 324°
2026-05-04 12:38 7.94437 97.30026 33868 ft 512 kts 324°
2026-05-04 12:38 8.00180 97.25764 33872 ft 513 kts 324°
2026-05-04 12:39 8.05600 97.21098 33870 ft 513 kts 311°
2026-05-04 12:39 8.09721 97.15234 33871 ft 513 kts 302°
2026-05-04 12:40 8.13443 97.09076 33869 ft 514 kts 301°
2026-05-04 12:40 8.17106 97.02885 33869 ft 514 kts 301°
2026-05-04 12:41 8.20788 96.96699 33872 ft 514 kts 301°
2026-05-04 12:41 8.24490 96.90530 33870 ft 514 kts 301°
2026-05-04 12:42 8.28195 96.84366 33874 ft 514 kts 301°
2026-05-04 12:42 8.31903 96.78192 33873 ft 514 kts 301°
2026-05-04 12:43 8.35609 96.72016 33873 ft 514 kts 301°
2026-05-04 12:43 8.39313 96.65838 33872 ft 514 kts 301°
2026-05-04 12:44 8.43015 96.59662 33870 ft 514 kts 301°
2026-05-04 12:44 8.46715 96.53486 33868 ft 514 kts 301°
2026-05-04 12:45 8.50413 96.47310 33871 ft 514 kts 301°
2026-05-04 12:45 8.54109 96.41136 33874 ft 514 kts 301°
2026-05-04 12:46 8.57807 96.34956 33874 ft 514 kts 301°
2026-05-04 12:46 8.61500 96.28779 33874 ft 514 kts 301°
2026-05-04 12:47 8.65197 96.22595 33874 ft 514 kts 301°
2026-05-04 12:47 8.68887 96.16419 33872 ft 514 kts 301°
2026-05-04 12:48 8.72585 96.10227 33871 ft 514 kts 301°
2026-05-04 12:48 8.76280 96.04036 33874 ft 515 kts 301°
2026-05-04 12:49 8.79980 95.97835 33874 ft 515 kts 301°
2026-05-04 12:49 8.83679 95.91624 33872 ft 516 kts 301°
2026-05-04 12:50 8.87378 95.85407 33873 ft 515 kts 301°
2026-05-04 12:50 8.91072 95.79198 33876 ft 515 kts 301°
2026-05-04 12:51 8.94759 95.72996 33871 ft 515 kts 301°
2026-05-04 12:51 8.98448 95.66794 33875 ft 515 kts 301°
2026-05-04 12:52 9.02136 95.60588 33871 ft 514 kts 301°
2026-05-04 12:52 9.05821 95.54386 33875 ft 515 kts 301°
2026-05-04 12:53 9.09510 95.48172 33875 ft 515 kts 301°
2026-05-04 12:53 9.13201 95.41951 33875 ft 515 kts 301°
2026-05-04 12:54 9.16890 95.35731 33875 ft 516 kts 301°
2026-05-04 12:54 9.20580 95.29506 33873 ft 516 kts 301°
2026-05-04 12:55 9.24268 95.23282 33875 ft 516 kts 301°
2026-05-04 12:55 9.27962 95.17045 33878 ft 516 kts 301°
2026-05-04 12:56 9.31652 95.10811 33879 ft 516 kts 301°
2026-05-04 12:56 9.35342 95.04573 33877 ft 516 kts 301°
2026-05-04 12:57 9.39029 94.98339 33879 ft 516 kts 301°
2026-05-04 12:57 9.42710 94.92110 33879 ft 515 kts 301°
2026-05-04 12:58 9.46384 94.85890 33879 ft 514 kts 301°
2026-05-04 12:58 9.50057 94.79669 33880 ft 514 kts 301°
2026-05-04 12:59 9.53724 94.73455 33878 ft 514 kts 301°
2026-05-04 12:59 9.57387 94.67244 33877 ft 514 kts 301°
2026-05-04 13:00 9.61054 94.61023 33879 ft 514 kts 301°
2026-05-04 13:00 9.64717 94.54807 33877 ft 514 kts 301°
2026-05-04 13:01 9.68387 94.48575 33881 ft 515 kts 301°
2026-05-04 13:01 9.72266 94.42483 33881 ft 514 kts 310°
2026-05-04 13:02 9.77340 94.37409 33882 ft 513 kts 319°
2026-05-04 13:02 9.82764 94.32701 33880 ft 514 kts 321°
2026-05-04 13:03 9.88245 94.28041 33882 ft 514 kts 321°
2026-05-04 13:03 9.93706 94.23371 33883 ft 514 kts 320°
2026-05-04 13:04 9.99164 94.18675 33881 ft 514 kts 320°
2026-05-04 13:04 10.04613 94.13975 33884 ft 514 kts 320°
2026-05-04 13:05 10.10047 94.09287 33884 ft 513 kts 320°
2026-05-04 13:05 10.14557 94.05391 33882 ft 512 kts 320°
2026-05-04 13:06 10.19972 94.00707 33881 ft 510 kts 320°
2026-05-04 13:06 10.25375 93.96045 33879 ft 509 kts 320°
2026-05-04 13:07 10.30761 93.91395 33883 ft 508 kts 320°
2026-05-04 13:07 10.36135 93.86746 33880 ft 507 kts 320°
2026-05-04 13:08 10.41494 93.82114 33879 ft 506 kts 320°
2026-05-04 13:08 10.46856 93.77477 33877 ft 506 kts 320°
2026-05-04 13:09 10.52214 93.72840 33877 ft 506 kts 320°
2026-05-04 13:09 10.57573 93.68199 33877 ft 506 kts 320°
2026-05-04 13:10 10.62925 93.63552 33879 ft 506 kts 320°
2026-05-04 13:10 10.68283 93.58911 33883 ft 506 kts 319°
2026-05-04 13:11 10.73633 93.54275 33875 ft 505 kts 319°
2026-05-04 13:11 10.78976 93.49643 33878 ft 504 kts 319°
2026-05-04 13:12 10.84308 93.45014 33877 ft 504 kts 319°
2026-05-04 13:12 10.89636 93.40384 33879 ft 503 kts 319°
2026-05-04 13:13 10.94955 93.35760 33878 ft 503 kts 319°
2026-05-04 13:13 11.00274 93.31134 33877 ft 503 kts 319°
2026-05-04 13:14 11.05596 93.26504 33878 ft 503 kts 319°
2026-05-04 13:14 11.10922 93.21869 33880 ft 503 kts 319°
2026-05-04 13:15 11.16242 93.17236 33878 ft 503 kts 319°
2026-05-04 13:15 11.21562 93.12601 33877 ft 503 kts 319°
2026-05-04 13:16 11.26875 93.07970 33880 ft 503 kts 319°
2026-05-04 13:16 11.32184 93.03340 33877 ft 502 kts 319°
2026-05-04 13:17 11.37491 92.98709 33877 ft 502 kts 319°
2026-05-04 13:17 11.42795 92.94079 33859 ft 502 kts 319°
2026-05-04 13:18 11.48098 92.89447 33847 ft 502 kts 319°
2026-05-04 13:18 11.53407 92.84808 33836 ft 503 kts 319°
2026-05-04 13:19 11.58718 92.80164 33829 ft 503 kts 319°
2026-05-04 13:19 11.64013 92.75506 33825 ft 503 kts 316°
2026-05-04 13:20 11.68902 92.70422 33827 ft 502 kts 313°
2026-05-04 13:20 11.73675 92.65223 33830 ft 502 kts 312°
2026-05-04 13:21 11.78420 92.60011 33841 ft 501 kts 312°
2026-05-04 13:21 11.83165 92.54808 33847 ft 500 kts 312°
2026-05-04 13:22 11.87910 92.49613 33860 ft 500 kts 312°
2026-05-04 13:22 11.92654 92.44421 33867 ft 499 kts 312°
2026-05-04 13:23 11.97389 92.39236 33872 ft 499 kts 312°
2026-05-04 13:23 12.02119 92.34052 33873 ft 499 kts 312°
2026-05-04 13:24 12.06844 92.28872 33877 ft 498 kts 312°
2026-05-04 13:24 12.11564 92.23693 33873 ft 498 kts 312°
2026-05-04 13:25 12.18639 92.15924 33875 ft 498 kts 312°
2026-05-04 13:25 12.23356 92.10742 33877 ft 498 kts 312°
2026-05-04 13:26 12.28070 92.05560 33878 ft 498 kts 312°
2026-05-04 13:26 12.32788 92.00370 33879 ft 498 kts 312°
2026-05-04 13:27 12.37507 91.95177 33876 ft 498 kts 311°
2026-05-04 13:27 12.42222 91.89985 33877 ft 498 kts 311°
2026-05-04 13:28 12.46907 91.84823 33875 ft 499 kts 311°
2026-05-04 13:28 12.51628 91.79619 33879 ft 499 kts 311°
2026-05-04 13:29 12.56343 91.74418 33879 ft 499 kts 311°
2026-05-04 13:29 12.61060 91.69212 33878 ft 498 kts 311°
2026-05-04 13:30 12.65772 91.64008 33876 ft 498 kts 311°
2026-05-04 13:30 12.70508 91.58774 33879 ft 498 kts 311°
2026-05-04 13:31 12.75186 91.53603 33879 ft 498 kts 311°
2026-05-04 13:31 12.79921 91.48364 33876 ft 498 kts 311°
2026-05-04 13:32 12.84591 91.43195 33875 ft 497 kts 311°
2026-05-04 13:32 12.89289 91.37991 33876 ft 497 kts 311°
2026-05-04 13:33 12.93983 91.32790 33875 ft 497 kts 311°
2026-05-04 13:33 12.98676 91.27584 33878 ft 497 kts 311°
2026-05-04 13:34 13.03366 91.22380 33877 ft 497 kts 311°
2026-05-04 13:34 13.08053 91.17176 33875 ft 497 kts 311°
2026-05-04 13:35 13.15082 91.09367 33876 ft 496 kts 311°
2026-05-04 13:36 13.19763 91.04162 33877 ft 496 kts 310°
2026-05-04 13:36 13.24442 90.98957 33879 ft 496 kts 310°
2026-05-04 13:37 13.29123 90.93745 33879 ft 496 kts 310°
2026-05-04 13:37 13.33803 90.88532 33879 ft 496 kts 310°
2026-05-04 13:38 13.38478 90.83321 33878 ft 496 kts 310°
2026-05-04 13:38 13.43152 90.78107 33878 ft 496 kts 310°
2026-05-04 13:39 13.47855 90.72858 33879 ft 495 kts 310°
2026-05-04 13:39 13.52518 90.67651 33881 ft 495 kts 310°
2026-05-04 13:40 13.57179 90.62442 33880 ft 495 kts 310°
2026-05-04 13:40 13.61838 90.57233 33877 ft 495 kts 310°
2026-05-04 13:41 13.66491 90.52027 33881 ft 494 kts 310°
2026-05-04 13:41 13.71109 90.46857 33879 ft 494 kts 310°
2026-05-04 13:42 13.78077 90.39051 33880 ft 494 kts 310°
2026-05-04 13:42 13.82720 90.33844 33877 ft 494 kts 310°
2026-05-04 13:43 13.87367 90.28629 33877 ft 494 kts 310°
2026-05-04 13:43 13.92018 90.23408 33878 ft 495 kts 310°
2026-05-04 13:44 13.96664 90.18188 33880 ft 495 kts 310°
2026-05-04 13:44 14.01317 90.12957 33877 ft 495 kts 310°
2026-05-04 13:45 14.05968 90.07724 33880 ft 495 kts 310°
2026-05-04 13:45 14.10623 90.02485 33876 ft 496 kts 311°
2026-05-04 13:46 14.15278 89.97241 33878 ft 496 kts 311°
2026-05-04 13:46 14.19936 89.91992 33878 ft 496 kts 311°
2026-05-04 13:47 14.23838 89.87591 33875 ft 496 kts 311°
2026-05-04 13:47 14.28494 89.82338 33879 ft 496 kts 311°
2026-05-04 13:48 14.33144 89.77086 33878 ft 496 kts 311°
2026-05-04 13:48 14.37795 89.71831 33876 ft 496 kts 311°
2026-05-04 13:49 14.42443 89.66576 33879 ft 496 kts 311°
2026-05-04 13:49 14.47089 89.61319 33880 ft 496 kts 311°
2026-05-04 13:50 14.51736 89.56059 33879 ft 496 kts 311°
2026-05-04 13:50 14.56376 89.50802 33873 ft 495 kts 311°
2026-05-04 13:51 14.61013 89.45544 33874 ft 495 kts 311°
2026-05-04 13:51 14.65654 89.40279 33874 ft 495 kts 311°
2026-05-04 13:52 14.72609 89.32382 33873 ft 495 kts 311°
2026-05-04 13:53 14.77313 89.27173 33874 ft 496 kts 313°
2026-05-04 13:53 14.82145 89.22084 33875 ft 496 kts 313°
2026-05-04 13:54 14.89387 89.14444 33876 ft 496 kts 313°
2026-05-04 13:55 14.96591 89.06764 33879 ft 496 kts 313°
2026-05-04 13:55 15.03790 88.99070 33878 ft 496 kts 312°
2026-05-04 13:56 15.08557 88.93972 33879 ft 496 kts 312°
2026-05-04 13:57 15.15631 88.86403 33879 ft 496 kts 312°
2026-05-04 13:58 15.25234 88.76116 33877 ft 497 kts 312°
2026-05-04 13:58 15.32438 88.68388 33876 ft 497 kts 312°
2026-05-04 13:59 15.37238 88.63235 33872 ft 497 kts 312°
2026-05-04 14:00 15.44443 88.55493 33877 ft 497 kts 312°
2026-05-04 14:00 15.51643 88.47748 33873 ft 497 kts 312°
2026-05-04 14:01 15.56440 88.42583 33874 ft 497 kts 312°
2026-05-04 14:02 15.63640 88.34824 33873 ft 497 kts 312°
2026-05-04 14:02 15.68436 88.29652 33871 ft 497 kts 312°
2026-05-04 14:03 15.73233 88.24474 33869 ft 498 kts 312°
2026-05-04 14:03 15.78032 88.19290 33872 ft 498 kts 312°
2026-05-04 14:04 15.85230 88.11508 33868 ft 498 kts 312°
2026-05-04 14:04 15.90026 88.06318 33868 ft 498 kts 312°
2026-05-04 14:05 15.97221 87.98525 33869 ft 498 kts 312°
2026-05-04 14:06 16.02017 87.93325 33868 ft 498 kts 312°
2026-05-04 14:06 16.06819 87.88115 33872 ft 499 kts 312°
2026-05-04 14:07 16.11614 87.82909 33868 ft 499 kts 312°
2026-05-04 14:07 16.16408 87.77701 33867 ft 499 kts 312°
2026-05-04 14:08 16.21172 87.72520 33867 ft 499 kts 312°
2026-05-04 14:08 16.25966 87.67303 33866 ft 499 kts 312°
2026-05-04 14:09 16.33154 87.59475 33866 ft 499 kts 312°
2026-05-04 14:10 16.40340 87.51638 33865 ft 499 kts 312°
2026-05-04 14:10 16.45131 87.46409 33865 ft 499 kts 312°
2026-05-04 14:11 16.49919 87.41180 33863 ft 499 kts 312°
2026-05-04 14:11 16.57101 87.33327 33865 ft 499 kts 312°
2026-05-04 14:12 16.61891 87.28084 33862 ft 499 kts 312°
2026-05-04 14:13 16.69070 87.20220 33862 ft 499 kts 311°
2026-05-04 14:13 16.73856 87.14973 33864 ft 499 kts 311°
2026-05-04 14:14 16.78652 87.09797 33861 ft 499 kts 313°
2026-05-04 14:14 16.85952 87.02037 33862 ft 500 kts 312°
2026-05-04 14:15 16.95664 86.91653 33863 ft 500 kts 312°
2026-05-04 14:16 17.02936 86.83855 33863 ft 500 kts 312°
2026-05-04 14:17 17.10209 86.76048 33857 ft 499 kts 312°
2026-05-04 14:18 17.17476 86.68238 33863 ft 499 kts 312°
2026-05-04 14:19 17.27158 86.57819 33861 ft 499 kts 311°
2026-05-04 14:19 17.31997 86.52605 33861 ft 499 kts 311°
2026-05-04 14:20 17.36829 86.47394 33854 ft 499 kts 311°
2026-05-04 14:20 17.41625 86.42219 33859 ft 499 kts 311°
2026-05-04 14:21 17.48863 86.34400 33856 ft 498 kts 311°
2026-05-04 14:21 17.53685 86.29185 33858 ft 498 kts 311°
2026-05-04 14:22 17.58498 86.23976 33862 ft 497 kts 311°
2026-05-04 14:22 17.63311 86.18763 33857 ft 497 kts 311°
2026-05-04 14:23 17.70516 86.10950 33859 ft 496 kts 311°
2026-05-04 14:24 17.75312 86.05745 33859 ft 496 kts 311°
2026-05-04 14:24 17.80103 86.00541 33854 ft 496 kts 311°
2026-05-04 14:25 17.84889 85.95337 33854 ft 495 kts 311°
2026-05-04 14:25 17.92058 85.87535 33853 ft 495 kts 311°
2026-05-04 14:26 17.96830 85.82337 33852 ft 494 kts 311°
2026-05-04 14:26 18.01604 85.77131 33851 ft 494 kts 311°
2026-05-04 14:27 18.06369 85.71931 33852 ft 494 kts 311°
2026-05-04 14:27 18.11140 85.66721 33852 ft 495 kts 311°
2026-05-04 14:28 18.15912 85.61505 33847 ft 495 kts 311°
2026-05-04 14:28 18.20682 85.56286 33850 ft 495 kts 311°
2026-05-04 14:29 18.30209 85.45851 33850 ft 496 kts 310°
2026-05-04 14:30 18.34991 85.40606 33846 ft 497 kts 310°
2026-05-04 14:31 18.42168 85.32726 34113 ft 497 kts 310°
2026-05-04 14:31 18.46939 85.27483 34540 ft 495 kts 310°
2026-05-04 14:32 18.51695 85.22252 34933 ft 493 kts 310°
2026-05-04 14:32 18.54061 85.19648 35126 ft 492 kts 310°
2026-05-04 14:32 18.56427 85.17042 35313 ft 492 kts 310°
2026-05-04 14:32 18.58791 85.14437 35500 ft 491 kts 310°
2026-05-04 14:33 18.61150 85.11838 35695 ft 490 kts 310°
2026-05-04 14:33 18.63503 85.09242 35815 ft 491 kts 310°
2026-05-04 14:33 18.65860 85.06642 35838 ft 490 kts 310°
2026-05-04 14:34 18.69775 85.02321 35838 ft 490 kts 310°
2026-05-04 14:34 18.74483 84.97122 35842 ft 490 kts 310°
2026-05-04 14:35 18.79206 84.91936 35838 ft 490 kts 310°
2026-05-04 14:35 18.83931 84.86753 35840 ft 490 kts 311°
2026-05-04 14:36 18.88649 84.81550 35838 ft 490 kts 310°
2026-05-04 14:36 18.93350 84.76326 35837 ft 491 kts 310°
2026-05-04 14:37 18.98049 84.71101 35840 ft 491 kts 310°
2026-05-04 14:37 19.02759 84.65868 35843 ft 491 kts 310°
2026-05-04 14:38 19.07470 84.60632 35845 ft 491 kts 310°
2026-05-04 14:38 19.12182 84.55391 35849 ft 492 kts 310°
2026-05-04 14:39 19.16052 84.51083 35852 ft 492 kts 310°
2026-05-04 14:39 19.20761 84.45835 35857 ft 492 kts 310°
2026-05-04 14:40 19.27822 84.37957 35858 ft 491 kts 310°
2026-05-04 14:40 19.32525 84.32706 35859 ft 491 kts 310°
2026-05-04 14:41 19.37226 84.27455 35863 ft 491 kts 310°
2026-05-04 14:42 19.46630 84.17020 35864 ft 491 kts 311°
2026-05-04 14:42 19.51446 84.11880 35861 ft 491 kts 311°
2026-05-04 14:43 19.56260 84.06742 35863 ft 491 kts 311°
2026-05-04 14:43 19.61057 84.01587 35865 ft 491 kts 311°
2026-05-04 14:44 19.65846 83.96420 35865 ft 491 kts 311°
2026-05-04 14:44 19.70626 83.91257 35857 ft 490 kts 311°
2026-05-04 14:45 19.75395 83.86102 35858 ft 490 kts 311°
2026-05-04 14:45 19.80171 83.80938 35851 ft 489 kts 311°
2026-05-04 14:46 19.84936 83.75783 35851 ft 489 kts 311°
2026-05-04 14:46 19.89697 83.70627 35841 ft 489 kts 311°
2026-05-04 14:47 19.94456 83.65467 35841 ft 489 kts 311°
2026-05-04 14:47 19.99219 83.60302 35825 ft 488 kts 311°
2026-05-04 14:48 20.03964 83.55141 35816 ft 488 kts 311°
2026-05-04 14:48 20.08712 83.49969 35812 ft 488 kts 311°
2026-05-04 14:49 20.13468 83.44799 35811 ft 489 kts 311°
2026-05-04 14:49 20.18220 83.39629 35802 ft 489 kts 311°
2026-05-04 14:50 20.22936 83.34488 35799 ft 489 kts 311°
2026-05-04 14:50 20.27686 83.29304 35795 ft 489 kts 311°
2026-05-04 14:51 20.32436 83.24117 35794 ft 489 kts 311°
2026-05-04 14:51 20.37180 83.18931 35793 ft 489 kts 311°
2026-05-04 14:52 20.41919 83.13745 35795 ft 488 kts 311°
2026-05-04 14:52 20.46661 83.08551 35796 ft 488 kts 311°
2026-05-04 14:53 20.51397 83.03358 35799 ft 488 kts 311°
2026-05-04 14:53 20.56132 82.98162 35802 ft 488 kts 311°
2026-05-04 14:54 20.60863 82.92971 35802 ft 488 kts 311°
2026-05-04 14:54 20.65584 82.87764 35802 ft 488 kts 310°
2026-05-04 14:55 20.70293 82.82558 35800 ft 488 kts 310°
2026-05-04 14:55 20.75010 82.77342 35804 ft 488 kts 310°
2026-05-04 14:56 20.79732 82.72120 35798 ft 488 kts 310°
2026-05-04 14:56 20.84438 82.66911 35799 ft 487 kts 310°
2026-05-04 14:57 20.89151 82.61691 35802 ft 487 kts 310°
2026-05-04 14:57 20.93866 82.56486 35799 ft 487 kts 310°
2026-05-04 14:58 20.97910 82.52036 35803 ft 487 kts 310°
2026-05-04 14:58 21.02627 82.46840 35791 ft 487 kts 310°
2026-05-04 14:59 21.07349 82.41633 35811 ft 487 kts 310°
2026-05-04 15:00 21.14421 82.33821 35793 ft 487 kts 310°
2026-05-04 15:00 21.19132 82.28611 35806 ft 487 kts 310°
2026-05-04 15:01 21.26201 82.20784 35793 ft 487 kts 310°
2026-05-04 15:01 21.30909 82.15564 35792 ft 487 kts 310°
2026-05-04 15:02 21.35619 82.10337 35784 ft 487 kts 310°
2026-05-04 15:02 21.40329 82.05106 35779 ft 488 kts 310°
2026-05-04 15:03 21.45041 81.99868 35773 ft 488 kts 310°
2026-05-04 15:03 21.49813 81.94679 35766 ft 489 kts 311°
2026-05-04 15:04 21.54614 81.89571 35760 ft 489 kts 311°
2026-05-04 15:04 21.59442 81.84421 35760 ft 489 kts 311°
2026-05-04 15:05 21.64255 81.79260 35758 ft 489 kts 311°
2026-05-04 15:05 21.69064 81.74088 35761 ft 489 kts 311°
2026-05-04 15:06 21.73868 81.68916 35762 ft 489 kts 311°
2026-05-04 15:07 21.81061 81.61142 35769 ft 488 kts 310°
2026-05-04 15:07 21.85781 81.55894 35768 ft 488 kts 310°
2026-05-04 15:08 21.90486 81.50632 35768 ft 487 kts 310°
2026-05-04 15:08 21.95193 81.45377 35779 ft 487 kts 309°
2026-05-04 15:09 21.99859 81.40082 35783 ft 487 kts 309°
2026-05-04 15:09 22.04508 81.34781 35795 ft 487 kts 309°
2026-05-04 15:10 22.11494 81.26838 35802 ft 487 kts 309°
2026-05-04 15:11 22.18560 81.18961 35815 ft 487 kts 309°
2026-05-04 15:11 22.23279 81.13710 35821 ft 487 kts 309°
2026-05-04 15:12 22.27990 81.08447 35817 ft 487 kts 309°
2026-05-04 15:12 22.32692 81.03185 35821 ft 487 kts 309°
2026-05-04 15:13 22.37399 80.97912 35823 ft 487 kts 309°
2026-05-04 15:13 22.42069 80.92674 35818 ft 487 kts 309°
2026-05-04 15:14 22.46771 80.87395 35816 ft 487 kts 309°
2026-05-04 15:14 22.51470 80.82114 35804 ft 487 kts 309°
2026-05-04 15:15 22.56170 80.76826 35811 ft 487 kts 309°
2026-05-04 15:15 22.60864 80.71539 35804 ft 487 kts 309°
2026-05-04 15:16 22.67905 80.63599 35810 ft 487 kts 309°
2026-05-04 15:17 22.74939 80.55655 35805 ft 487 kts 309°
2026-05-04 15:17 22.81964 80.47707 35808 ft 487 kts 308°
2026-05-04 15:18 22.86645 80.42403 35807 ft 487 kts 309°
2026-05-04 15:19 22.93668 80.34436 35812 ft 487 kts 309°
2026-05-04 15:19 23.00678 80.26472 35798 ft 486 kts 308°
2026-05-04 15:20 23.05349 80.21157 35790 ft 486 kts 308°
2026-05-04 15:20 23.10016 80.15841 35780 ft 486 kts 308°
2026-05-04 15:21 23.14674 80.10532 35775 ft 485 kts 308°
2026-05-04 15:22 23.20838 80.01977 35774 ft 476 kts 297°
2026-05-04 15:22 23.25391 79.93792 35784 ft 475 kts 296°
2026-05-04 15:23 23.28755 79.87615 35787 ft 474 kts 296°
2026-05-04 15:23 23.32123 79.81449 35794 ft 474 kts 296°
2026-05-04 15:24 23.38866 79.69136 35804 ft 473 kts 296°
2026-05-04 15:25 23.42236 79.62975 35804 ft 473 kts 296°
2026-05-04 15:26 23.47278 79.53739 35803 ft 472 kts 296°
2026-05-04 15:26 23.52302 79.44521 35799 ft 472 kts 296°
2026-05-04 15:27 23.57319 79.35295 35801 ft 471 kts 296°
2026-05-04 15:28 23.62321 79.26083 35801 ft 470 kts 296°
2026-05-04 15:29 23.67308 79.16880 35801 ft 470 kts 296°
2026-05-04 15:30 23.78902 78.95419 35799 ft 468 kts 296°
2026-05-04 15:31 23.83855 78.86223 35799 ft 468 kts 296°
2026-05-04 15:32 23.92070 78.70931 35796 ft 468 kts 296°
2026-05-04 15:34 24.00285 78.55591 35800 ft 468 kts 296°
2026-05-04 15:34 24.05272 78.46425 35807 ft 468 kts 296°
2026-05-04 15:35 24.10311 78.37286 35796 ft 467 kts 296°
2026-05-04 15:36 24.15323 78.28141 35805 ft 467 kts 296°
2026-05-04 15:36 24.18657 78.22041 35810 ft 466 kts 296°
2026-05-04 15:37 24.21986 78.15940 35811 ft 466 kts 296°
2026-05-04 15:37 24.25310 78.09844 35820 ft 466 kts 296°
2026-05-04 15:38 24.28635 78.03738 35828 ft 466 kts 296°
2026-05-04 15:38 24.31952 77.97639 35831 ft 466 kts 296°
2026-05-04 15:39 24.35271 77.91528 35835 ft 466 kts 296°
2026-05-04 15:40 24.40240 77.82364 35837 ft 466 kts 296°
2026-05-04 15:40 24.43550 77.76251 35837 ft 466 kts 296°
2026-05-04 15:41 24.46858 77.70134 35848 ft 466 kts 296°
2026-05-04 15:41 24.50162 77.64016 35841 ft 466 kts 296°
2026-05-04 15:42 24.53465 77.57892 35839 ft 466 kts 296°
2026-05-04 15:42 24.56766 77.51763 35834 ft 466 kts 297°
2026-05-04 15:43 24.60066 77.45629 35833 ft 466 kts 297°
2026-05-04 15:43 24.63361 77.39497 35828 ft 466 kts 297°
2026-05-04 15:44 24.66655 77.33360 35821 ft 466 kts 297°
2026-05-04 15:44 24.69939 77.27234 35819 ft 466 kts 297°
2026-05-04 15:45 24.73267 77.21110 35811 ft 466 kts 297°
2026-05-04 15:45 24.76634 77.15015 35807 ft 466 kts 297°
2026-05-04 15:46 24.79994 77.08919 35805 ft 466 kts 297°
2026-05-04 15:46 24.83344 77.02813 35807 ft 466 kts 297°
2026-05-04 15:47 24.86687 76.96704 35801 ft 466 kts 297°
2026-05-04 15:47 24.90029 76.90588 35794 ft 465 kts 297°
2026-05-04 15:48 24.93361 76.84482 35800 ft 465 kts 297°
2026-05-04 15:48 24.98331 76.75364 35795 ft 464 kts 297°
2026-05-04 15:49 25.01951 76.69448 35795 ft 467 kts 302°
2026-05-04 15:49 25.05876 76.63737 35788 ft 467 kts 303°
2026-05-04 15:50 25.09839 76.58055 35792 ft 468 kts 303°
2026-05-04 15:50 25.13805 76.52362 35789 ft 468 kts 303°
2026-05-04 15:51 25.17760 76.46663 35778 ft 468 kts 303°
2026-05-04 15:51 25.21714 76.40953 35791 ft 468 kts 303°
2026-05-04 15:52 25.25663 76.35242 35782 ft 468 kts 303°
2026-05-04 15:52 25.29615 76.29521 35787 ft 469 kts 303°
2026-05-04 15:53 25.33571 76.23787 35791 ft 469 kts 303°
2026-05-04 15:53 25.37523 76.18052 35790 ft 469 kts 303°
2026-05-04 15:54 25.41478 76.12305 35789 ft 469 kts 303°
2026-05-04 15:54 25.45425 76.06564 35790 ft 469 kts 303°
2026-05-04 15:55 25.49371 76.00817 35792 ft 468 kts 303°
2026-05-04 15:55 25.53310 75.95073 35792 ft 468 kts 303°
2026-05-04 15:56 25.57244 75.89330 35792 ft 468 kts 303°
2026-05-04 15:56 25.61171 75.83589 35792 ft 468 kts 304°
2026-05-04 15:57 25.65098 75.77841 35796 ft 467 kts 304°
2026-05-04 15:57 25.69018 75.72096 35793 ft 467 kts 304°
2026-05-04 15:58 25.72933 75.66351 35797 ft 467 kts 304°
2026-05-04 15:58 25.76844 75.60605 35798 ft 466 kts 304°
2026-05-04 15:59 25.80749 75.54862 35805 ft 466 kts 304°
2026-05-04 15:59 25.84650 75.49117 35803 ft 466 kts 304°
2026-05-04 16:00 25.88549 75.43369 35805 ft 466 kts 304°
2026-05-04 16:00 25.92260 75.37499 35808 ft 464 kts 301°
2026-05-04 16:01 25.95818 75.31527 35813 ft 463 kts 301°
2026-05-04 16:01 25.99388 75.25576 35802 ft 462 kts 301°
2026-05-04 16:02 26.02983 75.19653 35806 ft 462 kts 301°
2026-05-04 16:03 26.08384 75.10785 35806 ft 461 kts 301°
2026-05-04 16:03 26.11977 75.04876 35811 ft 461 kts 301°
2026-05-04 16:04 26.15565 74.98962 35804 ft 461 kts 301°
2026-05-04 16:04 26.20456 74.89780 35803 ft 460 kts 296°
2026-05-04 16:05 26.23554 74.83538 35804 ft 460 kts 296°
2026-05-04 16:06 26.28186 74.74150 35800 ft 462 kts 296°
2026-05-04 16:07 26.33855 74.62660 35802 ft 462 kts 296°
2026-05-04 16:08 26.40038 74.50102 35805 ft 462 kts 296°
2026-05-04 16:09 26.47741 74.34407 35803 ft 461 kts 296°
2026-05-04 16:10 26.53883 74.21853 35794 ft 461 kts 296°
2026-05-04 16:11 26.60074 74.09306 35790 ft 461 kts 297°
2026-05-04 16:12 26.69419 73.90458 35782 ft 462 kts 297°
2026-05-04 16:13 26.75615 73.77896 35778 ft 463 kts 297°
2026-05-04 16:14 26.81821 73.65278 35770 ft 463 kts 297°
2026-05-04 16:16 26.89564 73.49487 35766 ft 462 kts 297°
2026-05-04 16:17 26.97281 73.33690 35764 ft 461 kts 297°
2026-05-04 16:18 27.03343 73.21021 35760 ft 460 kts 296°
2026-05-04 16:19 27.10892 73.05216 35757 ft 459 kts 296°
2026-05-04 16:20 27.18402 72.89451 35746 ft 457 kts 296°
2026-05-04 16:22 27.25870 72.73713 35739 ft 456 kts 296°
2026-05-04 16:23 27.34784 72.54851 35722 ft 454 kts 296°
2026-05-04 16:25 27.43637 72.36038 35717 ft 452 kts 296°
2026-05-04 16:26 27.53864 72.14196 35711 ft 451 kts 296°
2026-05-04 16:28 27.61143 71.98582 35712 ft 450 kts 296°
2026-05-04 16:29 27.71295 71.76710 35707 ft 449 kts 296°
2026-05-04 16:31 27.78518 71.61075 35708 ft 449 kts 296°
2026-05-04 16:32 27.87144 71.42329 35705 ft 448 kts 296°
2026-05-04 16:33 27.92668 71.29723 35702 ft 447 kts 294°
2026-05-04 16:34 27.96760 71.20240 35699 ft 447 kts 295°
2026-05-04 16:35 28.04961 71.01317 35696 ft 446 kts 295°
2026-05-04 16:36 28.09028 70.91898 35698 ft 446 kts 295°
2026-05-04 16:37 28.13103 70.82439 35697 ft 445 kts 295°
2026-05-04 16:38 28.18518 70.69835 35695 ft 445 kts 295°
2026-05-04 16:39 28.25281 70.54038 35700 ft 444 kts 295°
2026-05-04 16:40 28.30633 70.41492 35697 ft 443 kts 295°
2026-05-04 16:41 28.39837 70.27721 35704 ft 451 kts 323°
2026-05-04 16:42 28.48694 70.23810 35712 ft 462 kts 340°
2026-05-04 16:43 28.54962 70.22068 35712 ft 464 kts 341°
2026-05-04 16:43 28.64364 70.19497 35717 ft 463 kts 341°
2026-05-04 16:45 28.83137 70.14186 35731 ft 463 kts 341°
2026-05-04 16:46 28.98774 70.09739 35742 ft 463 kts 341°
2026-05-04 16:47 29.11255 70.06181 35755 ft 464 kts 341°
2026-05-04 16:48 29.23770 70.02605 35767 ft 464 kts 341°
2026-05-04 16:49 29.36343 69.99002 35783 ft 464 kts 341°
2026-05-04 16:50 29.48828 69.95414 35795 ft 464 kts 341°
2026-05-04 16:51 29.58218 69.92714 35805 ft 464 kts 341°
2026-05-04 16:52 29.70742 69.89100 35828 ft 465 kts 341°
2026-05-04 16:53 29.79137 69.86671 35839 ft 465 kts 341°
2026-05-04 16:54 29.91694 69.83034 35863 ft 465 kts 341°
2026-05-04 16:55 30.10559 69.77547 35883 ft 467 kts 341°
2026-05-04 16:56 30.26324 69.72952 35888 ft 468 kts 342°
2026-05-04 16:57 30.35877 69.70588 35895 ft 470 kts 344°
2026-05-04 16:58 30.48713 69.67526 35899 ft 471 kts 344°
2026-05-04 17:00 30.67994 69.62780 35913 ft 474 kts 344°
2026-05-04 17:01 30.84127 69.58779 35924 ft 475 kts 344°
2026-05-04 17:02 30.97067 69.55583 35927 ft 476 kts 344°
2026-05-04 17:03 31.06797 69.53174 35927 ft 477 kts 344°
2026-05-04 17:03 31.16533 69.50751 35929 ft 477 kts 344°
2026-05-04 17:04 31.29508 69.47416 35925 ft 476 kts 340°
2026-05-04 17:05 31.35464 69.44236 35927 ft 469 kts 324°
2026-05-04 17:05 31.40252 69.39168 35927 ft 464 kts 309°
2026-05-04 17:06 31.46311 69.30334 35921 ft 464 kts 307°
2026-05-04 17:07 31.51590 69.22415 35929 ft 463 kts 307°
2026-05-04 17:07 31.56241 69.15500 35936 ft 462 kts 307°
2026-05-04 17:08 31.62203 69.06657 35935 ft 461 kts 307°
2026-05-04 17:09 31.66168 69.00761 35932 ft 459 kts 307°
2026-05-04 17:09 31.70193 68.94943 35933 ft 459 kts 309°
2026-05-04 17:10 31.80494 68.80669 35931 ft 458 kts 309°
2026-05-04 17:11 31.84590 68.74927 35931 ft 458 kts 309°
2026-05-04 17:12 31.90717 68.66307 35924 ft 458 kts 309°
2026-05-04 17:13 32.00900 68.51941 35925 ft 456 kts 309°
2026-05-04 17:14 32.09009 68.40464 35922 ft 455 kts 309°
2026-05-04 17:15 32.15065 68.31870 35923 ft 454 kts 309°
2026-05-04 17:16 32.23120 68.20406 35916 ft 453 kts 309°
2026-05-04 17:17 32.31122 68.08985 35911 ft 452 kts 309°
2026-05-04 17:17 32.37124 68.00396 36291 ft 450 kts 309°
2026-05-04 17:18 32.39115 67.97544 36552 ft 449 kts 309°
2026-05-04 17:18 32.43081 67.91852 36988 ft 447 kts 309°
2026-05-04 17:19 32.47033 67.86173 37376 ft 447 kts 309°
2026-05-04 17:19 32.50980 67.80495 37742 ft 446 kts 309°
2026-05-04 17:20 32.55061 67.74953 37902 ft 446 kts 311°
2026-05-04 17:20 32.61284 67.66765 37899 ft 445 kts 311°
2026-05-04 17:21 32.69493 67.55791 37915 ft 444 kts 310°
2026-05-04 17:22 32.73573 67.50303 37925 ft 443 kts 310°
2026-05-04 17:23 32.81646 67.39248 37937 ft 441 kts 308°
2026-05-04 17:24 32.87476 67.30792 37954 ft 440 kts 309°
2026-05-04 17:25 32.95266 67.19609 37988 ft 438 kts 309°
2026-05-04 17:26 33.03022 67.08475 38018 ft 437 kts 309°
2026-05-04 17:27 33.12700 66.94500 38024 ft 437 kts 309°
2026-05-04 17:28 33.20421 66.83346 38012 ft 435 kts 309°
2026-05-04 17:29 33.31969 66.66573 38000 ft 436 kts 309°
2026-05-04 17:31 33.41595 66.52546 37978 ft 437 kts 309°
2026-05-04 17:32 33.51193 66.38463 37964 ft 436 kts 309°
2026-05-04 17:33 33.58835 66.27170 37970 ft 436 kts 309°
2026-05-04 17:34 33.65810 66.16845 37981 ft 435 kts 309°
2026-05-04 17:35 33.75327 66.02716 37997 ft 434 kts 308°
2026-05-04 17:36 33.79095 65.97086 38014 ft 432 kts 308°
2026-05-04 17:36 33.80968 65.94261 37912 ft 431 kts 308°
2026-05-04 17:36 33.82818 65.91486 38001 ft 431 kts 308°
2026-05-04 17:37 33.86587 65.85904 38029 ft 429 kts 308°
2026-05-04 17:37 33.90339 65.80323 38042 ft 429 kts 308°
2026-05-04 17:38 33.94095 65.74683 38051 ft 429 kts 308°
2026-05-04 17:38 33.97805 65.69106 38054 ft 430 kts 308°
2026-05-04 17:39 34.03405 65.60684 38064 ft 429 kts 308°
2026-05-04 17:39 34.07132 65.55070 38070 ft 429 kts 307°
2026-05-04 17:40 34.10864 65.49456 38083 ft 428 kts 307°
2026-05-04 17:40 34.14588 65.43840 38086 ft 429 kts 307°
2026-05-04 17:41 34.18310 65.38218 38087 ft 429 kts 307°
2026-05-04 17:41 34.22035 65.32585 38092 ft 429 kts 307°
2026-05-04 17:42 34.25753 65.26954 38097 ft 429 kts 307°
2026-05-04 17:42 34.29470 65.21316 38092 ft 429 kts 307°
2026-05-04 17:43 34.33185 65.15670 38101 ft 429 kts 307°
2026-05-04 17:43 34.36897 65.10025 38103 ft 429 kts 307°
2026-05-04 17:44 34.40606 65.04372 38103 ft 429 kts 307°
2026-05-04 17:44 34.44314 64.98712 38106 ft 429 kts 307°
2026-05-04 17:45 34.48019 64.93047 38107 ft 429 kts 307°
2026-05-04 17:45 34.51727 64.87375 38109 ft 429 kts 307°
2026-05-04 17:46 34.55423 64.81692 38113 ft 429 kts 307°
2026-05-04 17:46 34.59110 64.76006 38119 ft 429 kts 307°
2026-05-04 17:47 34.62798 64.70312 38120 ft 429 kts 307°
2026-05-04 17:47 34.66484 64.64614 38123 ft 429 kts 307°
2026-05-04 17:48 34.70171 64.58910 38118 ft 429 kts 307°
2026-05-04 17:48 34.73858 64.53199 38120 ft 429 kts 307°
2026-05-04 17:49 34.77537 64.47487 38116 ft 430 kts 306°
2026-05-04 17:49 34.81221 64.41759 38111 ft 430 kts 306°
2026-05-04 17:50 34.84902 64.36027 38105 ft 430 kts 307°
2026-05-04 17:50 34.88583 64.30260 38098 ft 431 kts 306°
2026-05-04 17:51 34.92262 64.24518 38090 ft 429 kts 306°
2026-05-04 17:51 34.95934 64.18782 38093 ft 429 kts 306°
2026-05-04 17:52 34.99605 64.13031 38082 ft 430 kts 306°
2026-05-04 17:52 35.03272 64.07274 38092 ft 431 kts 306°
2026-05-04 17:53 35.06941 64.01505 38088 ft 431 kts 306°
2026-05-04 17:53 35.10615 63.95717 38077 ft 430 kts 306°
2026-05-04 17:54 35.14273 63.89944 38077 ft 430 kts 306°
2026-05-04 17:54 35.17900 63.84209 38074 ft 430 kts 306°
2026-05-04 17:55 35.21554 63.78423 38053 ft 430 kts 306°
2026-05-04 17:55 35.25208 63.72628 38047 ft 430 kts 306°
2026-05-04 17:56 35.28860 63.66828 38045 ft 430 kts 306°
2026-05-04 17:56 35.32513 63.61035 38041 ft 430 kts 306°
2026-05-04 17:57 35.36172 63.55244 38034 ft 430 kts 306°
2026-05-04 17:57 35.39826 63.49448 38022 ft 430 kts 306°
2026-05-04 17:58 35.43484 63.43634 38017 ft 431 kts 306°
2026-05-04 17:58 35.47139 63.37817 38010 ft 431 kts 306°
2026-05-04 17:59 35.50796 63.31986 38004 ft 431 kts 306°
2026-05-04 18:00 35.56279 63.23225 37995 ft 432 kts 306°
2026-05-04 18:00 35.60263 63.17692 37988 ft 434 kts 312°
2026-05-04 18:01 35.64578 63.12502 37987 ft 434 kts 313°
2026-05-04 18:01 35.68937 63.07358 37981 ft 435 kts 313°
2026-05-04 18:02 35.75482 62.99617 37973 ft 435 kts 313°
2026-05-04 18:02 35.79837 62.94441 37970 ft 435 kts 313°
2026-05-04 18:03 35.84192 62.89251 37963 ft 436 kts 313°
2026-05-04 18:03 35.88548 62.84052 37960 ft 436 kts 313°
2026-05-04 18:04 35.92903 62.78848 37956 ft 436 kts 313°
2026-05-04 18:05 35.99437 62.71023 37953 ft 437 kts 313°
2026-05-04 18:05 36.03795 62.65794 37953 ft 437 kts 313°
2026-05-04 18:06 36.10334 62.57932 37951 ft 437 kts 313°
2026-05-04 18:06 36.14688 62.52686 37948 ft 437 kts 313°
2026-05-04 18:07 36.19047 62.47425 37946 ft 437 kts 313°
2026-05-04 18:07 36.23402 62.42161 37946 ft 438 kts 313°
2026-05-04 18:08 36.27759 62.36885 37945 ft 438 kts 313°
2026-05-04 18:08 36.32123 62.31592 37942 ft 439 kts 313°
2026-05-04 18:09 36.40849 62.20983 37943 ft 440 kts 313°
2026-05-04 18:10 36.45219 62.15657 37940 ft 440 kts 313°
2026-05-04 18:10 36.49589 62.10322 37933 ft 441 kts 313°
2026-05-04 18:11 36.53968 62.04965 37934 ft 442 kts 312°
2026-05-04 18:11 36.58350 61.99597 37932 ft 443 kts 312°
2026-05-04 18:12 36.62736 61.94216 37925 ft 443 kts 312°
2026-05-04 18:12 36.67130 61.88814 37927 ft 444 kts 312°
2026-05-04 18:13 36.71522 61.83408 37924 ft 444 kts 312°
2026-05-04 18:14 36.78106 61.75284 37923 ft 444 kts 312°
2026-05-04 18:14 36.82496 61.69855 37925 ft 444 kts 312°
2026-05-04 18:15 36.91237 61.59028 37923 ft 444 kts 312°
2026-05-04 18:16 36.95615 61.53592 37915 ft 443 kts 312°
2026-05-04 18:16 36.99982 61.48157 37929 ft 443 kts 312°
2026-05-04 18:17 37.06521 61.40005 37903 ft 442 kts 312°
2026-05-04 18:18 37.13051 61.31844 37909 ft 442 kts 312°
2026-05-04 18:18 37.16664 61.27320 37907 ft 442 kts 312°
2026-05-04 18:19 37.23192 61.19136 37910 ft 442 kts 312°
2026-05-04 18:19 37.27540 61.13659 37916 ft 443 kts 312°
2026-05-04 18:20 37.31886 61.08171 37907 ft 443 kts 312°
2026-05-04 18:20 37.36237 61.02670 37908 ft 444 kts 312°
2026-05-04 18:21 37.40590 60.97159 37905 ft 444 kts 312°
2026-05-04 18:21 37.44945 60.91637 37905 ft 445 kts 312°
2026-05-04 18:22 37.49305 60.86100 37899 ft 446 kts 312°
2026-05-04 18:22 37.53669 60.80548 37896 ft 446 kts 311°
2026-05-04 18:23 37.58035 60.74982 37892 ft 447 kts 311°
2026-05-04 18:23 37.62403 60.69405 37890 ft 447 kts 311°
2026-05-04 18:24 37.66771 60.63818 37891 ft 447 kts 311°
2026-05-04 18:24 37.71134 60.58227 37883 ft 447 kts 311°
2026-05-04 18:25 37.75493 60.52632 37883 ft 447 kts 311°
2026-05-04 18:25 37.79754 60.46919 37882 ft 446 kts 310°
2026-05-04 18:26 37.83924 60.41113 37884 ft 446 kts 309°
2026-05-04 18:26 37.88100 60.35319 37881 ft 445 kts 310°
2026-05-04 18:27 37.92289 60.29543 37881 ft 445 kts 310°
2026-05-04 18:27 37.96477 60.23774 37874 ft 445 kts 310°
2026-05-04 18:28 38.00151 60.17531 37874 ft 441 kts 297°
2026-05-04 18:28 38.02403 60.10348 37875 ft 439 kts 287°
2026-05-04 18:29 38.04053 60.02892 37871 ft 439 kts 285°
2026-05-04 18:29 38.05617 59.95396 37864 ft 439 kts 285°
2026-05-04 18:30 38.07983 59.84168 37862 ft 439 kts 285°
2026-05-04 18:31 38.09573 59.76685 37861 ft 439 kts 285°
2026-05-04 18:31 38.11159 59.69204 37856 ft 439 kts 285°
2026-05-04 18:32 38.12728 59.61778 37857 ft 439 kts 285°
2026-05-04 18:32 38.14303 59.54293 37855 ft 439 kts 285°
2026-05-04 18:33 38.15872 59.46809 37851 ft 438 kts 285°
2026-05-04 18:33 38.17436 59.39319 37850 ft 438 kts 285°
2026-05-04 18:34 38.18996 59.31827 37849 ft 438 kts 285°
2026-05-04 18:34 38.20551 59.24333 37850 ft 438 kts 284°
2026-05-04 18:35 38.22101 59.16836 37841 ft 438 kts 284°
2026-05-04 18:35 38.23645 59.09338 37841 ft 438 kts 284°
2026-05-04 18:36 38.25184 59.01842 37839 ft 438 kts 284°
2026-05-04 18:36 38.26720 58.94338 37837 ft 438 kts 284°
2026-05-04 18:37 38.28249 58.86838 37835 ft 438 kts 284°
2026-05-04 18:37 38.29774 58.79329 37829 ft 438 kts 284°
2026-05-04 18:38 38.31293 58.71825 37830 ft 438 kts 284°
2026-05-04 18:38 38.32808 58.64309 37827 ft 438 kts 284°
2026-05-04 18:39 38.34318 58.56797 37823 ft 438 kts 284°
2026-05-04 18:39 38.35825 58.49275 37824 ft 438 kts 284°
2026-05-04 18:40 38.37317 58.41795 37826 ft 438 kts 284°
2026-05-04 18:40 38.38814 58.34263 37826 ft 439 kts 283°
2026-05-04 18:41 38.40585 58.26832 37830 ft 439 kts 291°
2026-05-04 18:41 38.43012 58.19676 37825 ft 440 kts 292°
2026-05-04 18:42 38.45536 58.12571 37828 ft 440 kts 292°
2026-05-04 18:42 38.48066 58.05467 37829 ft 440 kts 292°
2026-05-04 18:43 38.50578 57.98359 37831 ft 439 kts 292°
2026-05-04 18:43 38.53081 57.91240 37825 ft 439 kts 292°
2026-05-04 18:44 38.55575 57.84124 37829 ft 439 kts 292°
2026-05-04 18:44 38.58062 57.77011 37826 ft 438 kts 292°
2026-05-04 18:45 38.60544 57.69896 37829 ft 438 kts 292°
2026-05-04 18:45 38.62494 57.62562 37827 ft 435 kts 284°
2026-05-04 18:46 38.64011 57.55070 37829 ft 435 kts 282°
2026-05-04 18:46 38.65456 57.47574 37828 ft 434 kts 282°
2026-05-04 18:47 38.66897 57.40072 37829 ft 434 kts 282°
2026-05-04 18:47 38.68342 57.32578 37829 ft 434 kts 282°
2026-05-04 18:48 38.69786 57.25088 37831 ft 433 kts 282°
2026-05-04 18:48 38.71225 57.17599 37831 ft 433 kts 282°
2026-05-04 18:49 38.72657 57.10114 37831 ft 433 kts 282°
2026-05-04 18:49 38.74084 57.02622 37833 ft 433 kts 282°
2026-05-04 18:50 38.75505 56.95138 37835 ft 433 kts 282°
2026-05-04 18:50 38.76924 56.87639 37834 ft 433 kts 282°
2026-05-04 18:51 38.78336 56.80147 37836 ft 433 kts 282°
2026-05-04 18:51 38.79743 56.72648 37836 ft 432 kts 282°
2026-05-04 18:52 38.81145 56.65152 37836 ft 432 kts 281°
2026-05-04 18:52 38.82531 56.57712 37838 ft 432 kts 281°
2026-05-04 18:53 38.83922 56.50221 37836 ft 432 kts 281°
2026-05-04 18:53 38.85307 56.42731 37836 ft 432 kts 281°
2026-05-04 18:54 38.86687 56.35234 37835 ft 431 kts 281°
2026-05-04 18:54 38.88061 56.27742 37827 ft 431 kts 281°
2026-05-04 18:55 38.89442 56.20197 37838 ft 431 kts 281°
2026-05-04 18:55 38.91477 56.08996 37835 ft 431 kts 281°
2026-05-04 18:56 38.92843 56.01447 37836 ft 431 kts 281°
2026-05-04 18:56 38.94196 55.93938 37835 ft 431 kts 281°
2026-05-04 18:57 38.95536 55.86477 37835 ft 431 kts 281°
2026-05-04 18:57 38.96878 55.78972 37838 ft 431 kts 280°
2026-05-04 18:58 38.98216 55.71461 37839 ft 431 kts 280°
2026-05-04 18:58 38.99551 55.63943 37842 ft 431 kts 280°
2026-05-04 18:59 39.00880 55.56423 37839 ft 431 kts 280°
2026-05-04 18:59 39.02205 55.48909 37836 ft 431 kts 280°
2026-05-04 19:00 39.03526 55.41396 37834 ft 431 kts 280°
2026-05-04 19:00 39.04840 55.33886 37832 ft 430 kts 280°
2026-05-04 19:01 39.06149 55.26378 37830 ft 430 kts 280°
2026-05-04 19:01 39.07453 55.18869 37830 ft 430 kts 280°
2026-05-04 19:02 39.08751 55.11366 37829 ft 430 kts 279°
2026-05-04 19:02 39.10044 55.03857 37836 ft 430 kts 279°
2026-05-04 19:03 39.11333 54.96348 37823 ft 430 kts 279°
2026-05-04 19:03 39.12400 54.90103 37825 ft 430 kts 279°
2026-05-04 19:04 39.13680 54.82585 37833 ft 429 kts 279°
2026-05-04 19:04 39.14954 54.75069 37825 ft 429 kts 279°
2026-05-04 19:05 39.16223 54.67556 37824 ft 429 kts 279°
2026-05-04 19:05 39.17488 54.60034 37835 ft 429 kts 279°
2026-05-04 19:06 39.18750 54.52518 37836 ft 429 kts 279°
2026-05-04 19:06 39.20003 54.45000 37836 ft 429 kts 279°
2026-05-04 19:07 39.21248 54.37470 37832 ft 429 kts 279°
2026-05-04 19:07 39.22488 54.29947 37837 ft 429 kts 279°
2026-05-04 19:08 39.23727 54.22414 37842 ft 429 kts 279°
2026-05-04 19:08 39.24961 54.14875 37839 ft 429 kts 278°
2026-05-04 19:09 39.26190 54.07341 37838 ft 429 kts 278°
2026-05-04 19:09 39.27415 53.99793 37841 ft 430 kts 278°
2026-05-04 19:10 39.28635 53.92240 37841 ft 430 kts 278°
2026-05-04 19:10 39.29850 53.84690 37845 ft 430 kts 278°
2026-05-04 19:11 39.31062 53.77127 37844 ft 430 kts 278°
2026-05-04 19:11 39.32270 53.69555 37845 ft 430 kts 278°
2026-05-04 19:12 39.34072 53.58191 37846 ft 431 kts 278°
2026-05-04 19:13 39.35269 53.50608 37850 ft 431 kts 278°
2026-05-04 19:13 39.36459 53.43027 37851 ft 431 kts 278°
2026-05-04 19:14 39.37647 53.35431 37861 ft 431 kts 277°
2026-05-04 19:14 39.38821 53.27888 37854 ft 431 kts 277°
2026-05-04 19:15 39.39999 53.20288 37856 ft 431 kts 277°
2026-05-04 19:15 39.41171 53.12688 37854 ft 431 kts 277°
2026-05-04 19:16 39.42338 53.05082 37865 ft 431 kts 277°
2026-05-04 19:16 39.43500 52.97481 37863 ft 431 kts 277°
2026-05-04 19:17 39.44659 52.89864 37872 ft 431 kts 277°
2026-05-04 19:17 39.45813 52.82243 37864 ft 432 kts 277°
2026-05-04 19:18 39.46963 52.74611 37867 ft 432 kts 277°
2026-05-04 19:18 39.48110 52.66963 37870 ft 433 kts 277°
2026-05-04 19:19 39.49253 52.59309 37871 ft 434 kts 276°
2026-05-04 19:19 39.50394 52.51632 37870 ft 434 kts 276°
2026-05-04 19:20 39.51523 52.43997 37874 ft 435 kts 276°
2026-05-04 19:20 39.52656 52.36298 37876 ft 435 kts 276°
2026-05-04 19:21 39.53786 52.28588 37880 ft 436 kts 276°
2026-05-04 19:21 39.54911 52.20872 37880 ft 436 kts 276°
2026-05-04 19:22 39.56032 52.13145 37887 ft 436 kts 276°
2026-05-04 19:22 39.57149 52.05410 37879 ft 437 kts 276°
2026-05-04 19:23 39.58260 51.97672 37876 ft 437 kts 276°
2026-05-04 19:23 39.59368 51.89923 37877 ft 437 kts 276°
2026-05-04 19:24 39.60472 51.82164 37883 ft 438 kts 276°
2026-05-04 19:24 39.61570 51.74400 37886 ft 438 kts 276°
2026-05-04 19:25 39.62666 51.66618 37885 ft 438 kts 275°
2026-05-04 19:25 39.63756 51.58836 37888 ft 439 kts 275°
2026-05-04 19:26 39.64900 51.51058 37887 ft 442 kts 279°
2026-05-04 19:26 39.66804 51.43422 37888 ft 446 kts 284°
2026-05-04 19:27 39.68920 51.35842 37888 ft 447 kts 284°
2026-05-04 19:27 39.71068 51.28257 37889 ft 448 kts 284°
2026-05-04 19:28 39.73204 51.20655 37888 ft 448 kts 284°
2026-05-04 19:28 39.75325 51.13044 37895 ft 448 kts 284°
2026-05-04 19:29 39.77429 51.05465 37891 ft 449 kts 284°
2026-05-04 19:29 39.79484 50.98041 37891 ft 449 kts 284°
2026-05-04 19:30 39.81596 50.90386 37936 ft 450 kts 284°
2026-05-04 19:30 39.82652 50.86551 38104 ft 450 kts 284°
2026-05-04 19:30 39.83707 50.82716 38340 ft 450 kts 284°
2026-05-04 19:30 39.84760 50.78880 38523 ft 450 kts 284°
2026-05-04 19:31 39.85812 50.75044 38678 ft 450 kts 284°
2026-05-04 19:31 39.86862 50.71208 38815 ft 450 kts 284°
2026-05-04 19:31 39.87910 50.67371 38944 ft 450 kts 284°
2026-05-04 19:31 39.88975 50.63470 39077 ft 451 kts 284°
2026-05-04 19:32 39.90021 50.59629 39197 ft 451 kts 284°
2026-05-04 19:32 39.91057 50.55823 39322 ft 451 kts 284°
2026-05-04 19:32 39.92101 50.51978 39445 ft 451 kts 284°
2026-05-04 19:32 39.93148 50.48119 39552 ft 452 kts 284°
2026-05-04 19:33 39.94194 50.44258 39673 ft 452 kts 284°
2026-05-04 19:33 39.95253 50.40344 39793 ft 452 kts 284°
2026-05-04 19:33 39.96284 50.36525 39879 ft 453 kts 284°
2026-05-04 19:34 39.98370 50.28781 39900 ft 453 kts 284°
2026-05-04 19:34 40.00453 50.21026 39903 ft 453 kts 284°
2026-05-04 19:35 40.02531 50.13264 39902 ft 453 kts 284°
2026-05-04 19:35 40.04604 50.05497 39904 ft 453 kts 284°
2026-05-04 19:36 40.06674 49.97717 39902 ft 454 kts 284°
2026-05-04 19:36 40.08738 49.89937 39902 ft 454 kts 284°
2026-05-04 19:37 40.10798 49.82145 39905 ft 454 kts 284°
2026-05-04 19:37 40.12854 49.74346 39909 ft 454 kts 284°
2026-05-04 19:38 40.14905 49.66540 39912 ft 454 kts 284°
2026-05-04 19:38 40.16951 49.58730 39904 ft 454 kts 284°
2026-05-04 19:39 40.18991 49.50919 39907 ft 454 kts 284°
2026-05-04 19:39 40.21028 49.43099 39909 ft 454 kts 284°
2026-05-04 19:40 40.23061 49.35265 39905 ft 454 kts 284°
2026-05-04 19:40 40.25087 49.27434 39904 ft 454 kts 284°
2026-05-04 19:41 40.27113 49.19593 39900 ft 455 kts 284°
2026-05-04 19:41 40.29149 49.11740 39902 ft 455 kts 284°
2026-05-04 19:42 40.31180 49.03880 39894 ft 456 kts 284°
2026-05-04 19:42 40.33192 48.96003 39895 ft 456 kts 283°
2026-05-04 19:43 40.35191 48.88106 39894 ft 457 kts 283°
2026-05-04 19:43 40.37187 48.80198 39890 ft 457 kts 283°
2026-05-04 19:44 40.39181 48.72285 39882 ft 457 kts 283°
2026-05-04 19:44 40.41159 48.64416 39877 ft 457 kts 283°
2026-05-04 19:45 40.43146 48.56485 39874 ft 457 kts 283°
2026-05-04 19:45 40.45127 48.48550 39875 ft 457 kts 283°
2026-05-04 19:46 40.47103 48.40611 39872 ft 458 kts 283°
2026-05-04 19:46 40.49074 48.32660 39868 ft 458 kts 283°
2026-05-04 19:47 40.51042 48.24699 39867 ft 458 kts 283°
2026-05-04 19:47 40.53004 48.16737 39863 ft 458 kts 283°
2026-05-04 19:48 40.54971 48.08768 39861 ft 459 kts 283°
2026-05-04 19:48 40.56931 48.00780 39859 ft 459 kts 283°
2026-05-04 19:49 40.58324 47.92677 39862 ft 451 kts 270°
2026-05-04 19:49 40.58740 47.84478 39864 ft 449 kts 268°
2026-05-04 19:50 40.58955 47.77650 39854 ft 449 kts 268°
2026-05-04 19:50 40.59226 47.68100 39852 ft 449 kts 268°
2026-05-04 19:51 40.59471 47.59882 39856 ft 450 kts 268°
2026-05-04 19:51 40.59719 47.51653 39849 ft 450 kts 268°
2026-05-04 19:52 40.59925 47.44759 39836 ft 450 kts 268°
2026-05-04 19:52 40.60165 47.36524 39835 ft 451 kts 268°
2026-05-04 19:53 40.60399 47.28275 39831 ft 451 kts 268°
2026-05-04 19:53 40.60638 47.20025 39829 ft 452 kts 269°
2026-05-04 19:54 40.61338 47.11818 39831 ft 455 kts 272°
2026-05-04 19:54 40.62178 47.03547 39832 ft 456 kts 272°
2026-05-04 19:55 40.63036 46.95273 39828 ft 457 kts 272°
2026-05-04 19:55 40.63885 46.86988 39828 ft 457 kts 272°
2026-05-04 19:56 40.64721 46.78689 39822 ft 457 kts 272°
2026-05-04 19:56 40.65550 46.70389 39822 ft 457 kts 272°
2026-05-04 19:57 40.66372 46.62082 39825 ft 458 kts 272°
2026-05-04 19:57 40.67191 46.53761 39824 ft 458 kts 272°
2026-05-04 19:58 40.68005 46.45430 39828 ft 459 kts 271°
2026-05-04 19:58 40.68813 46.37085 39830 ft 460 kts 271°
2026-05-04 19:59 40.69619 46.28716 39829 ft 461 kts 271°
2026-05-04 19:59 40.70418 46.20344 39828 ft 461 kts 271°
2026-05-04 20:00 40.71214 46.11941 39825 ft 462 kts 271°
2026-05-04 20:00 40.72008 46.03532 39813 ft 463 kts 271°
2026-05-04 20:01 40.72790 45.95114 39813 ft 463 kts 271°
2026-05-04 20:01 40.73570 45.86674 39811 ft 464 kts 271°
2026-05-04 20:02 40.74344 45.78215 39812 ft 466 kts 271°
2026-05-04 20:02 40.75116 45.69724 39799 ft 467 kts 271°
2026-05-04 20:03 40.75886 45.61205 39808 ft 468 kts 271°
2026-05-04 20:03 40.76651 45.52660 39819 ft 470 kts 271°
2026-05-04 20:04 40.77313 45.44080 39821 ft 469 kts 268°
2026-05-04 20:04 40.77654 45.35478 39819 ft 470 kts 267°
2026-05-04 20:05 40.77967 45.26859 39818 ft 472 kts 268°
2026-05-04 20:05 40.78323 45.18195 39820 ft 474 kts 268°
2026-05-04 20:06 40.78705 45.09515 39827 ft 474 kts 268°
2026-05-04 20:06 40.79089 45.00823 39828 ft 474 kts 268°
2026-05-04 20:07 40.79463 44.92129 39834 ft 475 kts 268°
2026-05-04 20:07 40.79825 44.83436 39845 ft 476 kts 268°
2026-05-04 20:08 40.80180 44.74723 39845 ft 475 kts 268°
2026-05-04 20:08 40.80529 44.66032 39850 ft 474 kts 268°
2026-05-04 20:09 40.80871 44.57350 39864 ft 474 kts 268°
2026-05-04 20:09 40.81204 44.48663 39868 ft 473 kts 268°
2026-05-04 20:10 40.81535 44.39984 39879 ft 473 kts 268°
2026-05-04 20:10 40.81860 44.31310 39889 ft 473 kts 268°
2026-05-04 20:11 40.82178 44.22630 39907 ft 473 kts 268°
2026-05-04 20:11 40.82487 44.13952 39923 ft 473 kts 268°
2026-05-04 20:12 40.82790 44.05266 39930 ft 474 kts 268°
2026-05-04 20:12 40.83087 43.96559 39937 ft 475 kts 268°
2026-05-04 20:13 40.83378 43.87851 39944 ft 475 kts 268°
2026-05-04 20:13 40.83666 43.79131 39941 ft 475 kts 268°
2026-05-04 20:14 40.83947 43.70409 39931 ft 475 kts 268°
2026-05-04 20:14 40.84304 43.61681 39926 ft 477 kts 270°
2026-05-04 20:15 40.84828 43.52944 39913 ft 478 kts 270°
2026-05-04 20:15 40.85352 43.44192 39909 ft 478 kts 270°
2026-05-04 20:16 40.85842 43.35428 39905 ft 479 kts 270°
2026-05-04 20:16 40.86313 43.26652 39914 ft 479 kts 270°
2026-05-04 20:17 40.86776 43.17857 39918 ft 480 kts 270°
2026-05-04 20:17 40.87233 43.09057 39922 ft 481 kts 269°
2026-05-04 20:18 40.87686 43.00234 39923 ft 481 kts 269°
2026-05-04 20:18 40.88132 42.91405 39921 ft 482 kts 269°
2026-05-04 20:19 40.88572 42.82567 39921 ft 482 kts 269°
2026-05-04 20:19 40.89006 42.73728 39921 ft 482 kts 269°
2026-05-04 20:20 40.89433 42.64876 39920 ft 482 kts 269°
2026-05-04 20:20 40.89853 42.56026 39914 ft 483 kts 269°
2026-05-04 20:21 40.90264 42.47176 39910 ft 483 kts 269°
2026-05-04 20:21 40.90872 42.33883 39899 ft 483 kts 269°
2026-05-04 20:22 40.91271 42.25017 39906 ft 483 kts 269°
2026-05-04 20:22 40.91663 42.16141 39889 ft 484 kts 269°
2026-05-04 20:23 40.92047 42.07261 39889 ft 484 kts 269°
2026-05-04 20:23 40.92424 41.98377 39893 ft 484 kts 269°
2026-05-04 20:24 40.92795 41.89484 39891 ft 485 kts 269°
2026-05-04 20:24 40.93155 41.80588 39884 ft 484 kts 269°
2026-05-04 20:25 40.93514 41.71694 39882 ft 485 kts 269°
2026-05-04 20:25 40.93865 41.62784 39875 ft 486 kts 269°
2026-05-04 20:26 40.94210 41.53869 39877 ft 485 kts 269°
2026-05-04 20:26 40.94545 41.44947 39878 ft 486 kts 269°
2026-05-04 20:27 40.94877 41.36022 39871 ft 485 kts 269°
2026-05-04 20:27 40.95201 41.27105 39887 ft 487 kts 269°
2026-05-04 20:28 40.95520 41.18165 39887 ft 486 kts 269°
2026-05-04 20:28 40.95828 41.09245 39889 ft 486 kts 269°
2026-05-04 20:29 40.96131 41.00308 39886 ft 487 kts 269°
2026-05-04 20:29 40.96428 40.91367 39888 ft 487 kts 269°
2026-05-04 20:30 40.96724 40.82419 39887 ft 487 kts 269°
2026-05-04 20:30 40.97005 40.73463 39884 ft 487 kts 269°
2026-05-04 20:31 40.97278 40.64498 39884 ft 488 kts 269°
2026-05-04 20:31 40.97545 40.55537 39886 ft 488 kts 269°
2026-05-04 20:32 40.97764 40.48068 39881 ft 488 kts 269°
2026-05-04 20:32 40.98021 40.39095 39881 ft 488 kts 269°
2026-05-04 20:33 40.98272 40.30105 39882 ft 489 kts 269°
2026-05-04 20:33 40.98515 40.21120 39884 ft 489 kts 269°
2026-05-04 20:34 40.98755 40.12124 39883 ft 489 kts 269°
2026-05-04 20:34 40.98978 40.03122 39885 ft 489 kts 269°
2026-05-04 20:35 40.99194 39.94114 39885 ft 490 kts 269°
2026-05-04 20:35 40.99406 39.85100 39883 ft 490 kts 269°
2026-05-04 20:36 40.99888 39.76088 39882 ft 492 kts 274°
2026-05-04 20:36 41.00714 39.67081 39883 ft 493 kts 274°
2026-05-04 20:37 41.01584 39.58076 39889 ft 493 kts 274°
2026-05-04 20:37 41.02449 39.49056 39893 ft 493 kts 274°
2026-05-04 20:38 41.03299 39.40039 39895 ft 494 kts 274°
2026-05-04 20:38 41.04138 39.31017 39895 ft 494 kts 274°
2026-05-04 20:39 41.04973 39.21973 39898 ft 494 kts 274°
2026-05-04 20:39 41.05801 39.12932 39895 ft 495 kts 274°
2026-05-04 20:40 41.06638 39.03880 39895 ft 495 kts 274°
2026-05-04 20:40 41.07472 38.94833 39900 ft 495 kts 274°
2026-05-04 20:41 41.08299 38.85771 39901 ft 495 kts 274°
2026-05-04 20:41 41.09118 38.76702 39903 ft 495 kts 274°
2026-05-04 20:42 41.09927 38.67642 39907 ft 495 kts 274°
2026-05-04 20:42 41.10715 38.58564 39909 ft 496 kts 274°
2026-05-04 20:43 41.11465 38.49696 39912 ft 496 kts 274°
2026-05-04 20:43 41.12214 38.40613 39913 ft 496 kts 274°
2026-05-04 20:44 41.12960 38.31521 39918 ft 496 kts 274°
2026-05-04 20:44 41.13708 38.22421 39912 ft 496 kts 274°
2026-05-04 20:45 41.14451 38.13335 39913 ft 497 kts 274°
2026-05-04 20:45 41.15189 38.04207 39920 ft 497 kts 274°
2026-05-04 20:46 41.15919 37.95089 39916 ft 497 kts 274°
2026-05-04 20:46 41.16645 37.85965 39918 ft 497 kts 274°
2026-05-04 20:47 41.17411 37.76907 39919 ft 497 kts 274°
2026-05-04 20:47 41.18193 37.67788 39918 ft 497 kts 274°
2026-05-04 20:48 41.18948 37.58668 39924 ft 497 kts 273°
2026-05-04 20:48 41.19475 37.49517 39926 ft 497 kts 273°
2026-05-04 20:49 41.20108 37.40373 39922 ft 498 kts 274°
2026-05-04 20:49 41.20794 37.31227 39923 ft 498 kts 274°
2026-05-04 20:50 41.21476 37.22079 39924 ft 498 kts 274°
2026-05-04 20:50 41.22179 37.12937 39930 ft 498 kts 274°
2026-05-04 20:51 41.22895 37.03795 39929 ft 498 kts 274°
2026-05-04 20:51 41.23600 36.94653 39930 ft 498 kts 274°
2026-05-04 20:52 41.24294 36.85501 39935 ft 498 kts 274°
2026-05-04 20:52 41.24979 36.76351 39937 ft 498 kts 274°
2026-05-04 20:53 41.25657 36.67196 39939 ft 498 kts 274°
2026-05-04 20:53 41.26350 36.58037 39936 ft 498 kts 276°
2026-05-04 20:54 41.28031 36.49105 39939 ft 500 kts 286°
2026-05-04 20:54 41.30218 36.40329 39938 ft 500 kts 288°
2026-05-04 20:55 41.32478 36.31572 39933 ft 500 kts 288°
2026-05-04 20:55 41.34722 36.22805 39930 ft 500 kts 288°
2026-05-04 20:56 41.36943 36.14030 39923 ft 501 kts 287°
2026-05-04 20:56 41.39154 36.05234 39919 ft 501 kts 287°
2026-05-04 20:57 41.41358 35.96431 39922 ft 501 kts 287°
2026-05-04 20:57 41.43558 35.87617 39918 ft 501 kts 287°
2026-05-04 20:58 41.45749 35.78806 39919 ft 501 kts 287°
2026-05-04 20:58 41.47935 35.69982 39919 ft 501 kts 287°
2026-05-04 20:59 41.50116 35.61144 39919 ft 501 kts 287°
2026-05-04 20:59 41.52290 35.52303 39919 ft 501 kts 287°
2026-05-04 21:00 41.54455 35.43463 39924 ft 501 kts 287°
2026-05-04 21:00 41.56614 35.34616 39925 ft 501 kts 287°
2026-05-04 21:01 41.58767 35.25761 39926 ft 501 kts 287°
2026-05-04 21:01 41.60913 35.16901 39926 ft 501 kts 287°
2026-05-04 21:02 41.63049 35.08044 39927 ft 501 kts 287°
2026-05-04 21:02 41.65176 34.99171 39926 ft 501 kts 287°
2026-05-04 21:03 41.67296 34.90294 39924 ft 501 kts 287°
2026-05-04 21:03 41.69414 34.81426 39929 ft 501 kts 287°
2026-05-04 21:04 41.71528 34.72546 39929 ft 501 kts 287°
2026-05-04 21:04 41.73632 34.63661 39934 ft 501 kts 287°
2026-05-04 21:05 41.75728 34.54775 39936 ft 501 kts 287°
2026-05-04 21:05 41.77816 34.45878 39936 ft 501 kts 287°
2026-05-04 21:06 41.79897 34.36969 39937 ft 501 kts 287°
2026-05-04 21:06 41.81972 34.28046 39943 ft 501 kts 287°
2026-05-04 21:07 41.84041 34.19121 39942 ft 501 kts 287°
2026-05-04 21:07 41.86108 34.10193 39942 ft 501 kts 288°
2026-05-04 21:08 41.88161 34.01265 39944 ft 501 kts 287°
2026-05-04 21:08 41.90192 33.92398 39946 ft 500 kts 288°
2026-05-04 21:09 41.92230 33.83473 39948 ft 500 kts 288°
2026-05-04 21:09 41.94076 33.74470 39951 ft 500 kts 280°
2026-05-04 21:10 41.94217 33.65177 39951 ft 500 kts 261°
2026-05-04 21:10 41.92969 33.55985 39952 ft 501 kts 258°
2026-05-04 21:11 41.91488 33.46847 39953 ft 501 kts 258°
2026-05-04 21:11 41.89994 33.37710 39952 ft 501 kts 258°
2026-05-04 21:12 41.88525 33.28561 39951 ft 501 kts 258°
2026-05-04 21:12 41.87064 33.19413 39948 ft 501 kts 258°
2026-05-04 21:13 41.85598 33.10270 39952 ft 501 kts 258°
2026-05-04 21:13 41.84126 33.01123 39943 ft 502 kts 258°
2026-05-04 21:14 41.82642 32.91977 39945 ft 502 kts 258°
2026-05-04 21:14 41.81146 32.82834 39936 ft 502 kts 258°
2026-05-04 21:15 41.79643 32.73685 39936 ft 503 kts 258°
2026-05-04 21:15 41.78391 32.66086 39933 ft 502 kts 258°
2026-05-04 21:16 41.76875 32.56948 39928 ft 502 kts 258°
2026-05-04 21:16 41.75357 32.47837 39928 ft 501 kts 258°
2026-05-04 21:17 41.73832 32.38729 39925 ft 501 kts 258°
2026-05-04 21:17 41.72303 32.29642 39924 ft 500 kts 258°
2026-05-04 21:18 41.70707 32.20522 39921 ft 500 kts 257°
2026-05-04 21:18 41.69060 32.11541 39923 ft 500 kts 257°
2026-05-04 21:19 41.67402 32.02505 39920 ft 500 kts 257°
2026-05-04 21:19 41.65751 31.93477 39931 ft 500 kts 257°
2026-05-04 21:20 41.64097 31.84444 39926 ft 500 kts 257°
2026-05-04 21:20 41.62438 31.75428 39935 ft 500 kts 257°
2026-05-04 21:21 41.60771 31.66411 39666 ft 500 kts 258°
2026-05-04 21:21 41.59934 31.61904 39449 ft 497 kts 258°
2026-05-04 21:21 41.59106 31.57464 39177 ft 491 kts 258°
2026-05-04 21:22 41.58280 31.53039 38592 ft 492 kts 258°
2026-05-04 21:22 41.57448 31.48590 37876 ft 494 kts 258°
2026-05-04 21:22 41.56616 31.44148 37236 ft 494 kts 259°
2026-05-04 21:22 41.55788 31.39699 36598 ft 494 kts 260°
2026-05-04 21:23 41.55247 31.35191 35986 ft 489 kts 269°
2026-05-04 21:23 41.55222 31.30678 35343 ft 485 kts 278°
2026-05-04 21:23 41.55467 31.26173 34631 ft 488 kts 280°
2026-05-04 21:23 41.55753 31.21653 33871 ft 492 kts 280°
2026-05-04 21:24 41.56047 31.17083 33033 ft 495 kts 281°
2026-05-04 21:24 41.56336 31.12559 32249 ft 497 kts 281°
2026-05-04 21:24 41.56631 31.07898 31441 ft 499 kts 281°
2026-05-04 21:24 41.56922 31.03272 30633 ft 501 kts 281°
2026-05-04 21:25 41.57213 30.98625 29849 ft 502 kts 281°
2026-05-04 21:25 41.57498 30.94007 29251 ft 497 kts 281°
2026-05-04 21:25 41.57780 30.89426 28653 ft 493 kts 281°
2026-05-04 21:25 41.58058 30.84884 28140 ft 489 kts 281°
2026-05-04 21:26 41.58325 30.80467 27976 ft 477 kts 281°
2026-05-04 21:26 41.58588 30.76049 27801 ft 465 kts 281°
2026-05-04 21:26 41.58842 30.71789 27571 ft 455 kts 281°
2026-05-04 21:26 41.59090 30.67626 27309 ft 446 kts 282°
2026-05-04 21:27 41.59305 30.63506 26855 ft 444 kts 280°
2026-05-04 21:27 41.59451 30.59458 26375 ft 442 kts 279°
2026-05-04 21:27 41.59590 30.55374 25913 ft 439 kts 279°
2026-05-04 21:27 41.59732 30.51309 25456 ft 436 kts 279°
2026-05-04 21:28 41.59876 30.47275 24996 ft 434 kts 279°
2026-05-04 21:28 41.60019 30.43267 24539 ft 431 kts 279°
2026-05-04 21:28 41.60162 30.39276 24087 ft 429 kts 279°
2026-05-04 21:28 41.60304 30.35309 23650 ft 426 kts 279°
2026-05-04 21:29 41.60487 30.31378 23145 ft 422 kts 281°
2026-05-04 21:29 41.60610 30.27462 22654 ft 422 kts 277°
2026-05-04 21:29 41.60571 30.23550 22178 ft 420 kts 274°
2026-05-04 21:29 41.60601 30.19674 21704 ft 418 kts 279°
2026-05-04 21:30 41.60805 30.15826 21259 ft 412 kts 281°
2026-05-04 21:30 41.61017 30.12088 20818 ft 399 kts 279°
2026-05-04 21:30 41.61150 30.08448 20400 ft 382 kts 278°
2026-05-04 21:30 41.61239 30.04993 20027 ft 363 kts 278°
2026-05-04 21:31 41.61407 29.98407 19268 ft 350 kts 278°
2026-05-04 21:31 41.61501 29.95169 18886 ft 348 kts 278°
2026-05-04 21:31 41.61595 29.91995 18354 ft 338 kts 278°
2026-05-04 21:32 41.61697 29.88849 17371 ft 340 kts 278°
2026-05-04 21:32 41.61796 29.85700 16530 ft 337 kts 277°
2026-05-04 21:32 41.61888 29.82611 16097 ft 330 kts 277°
2026-05-04 21:32 41.61950 29.79559 15784 ft 328 kts 274°
2026-05-04 21:33 41.61843 29.76504 15527 ft 329 kts 271°
2026-05-04 21:33 41.61698 29.73457 15261 ft 328 kts 271°
2026-05-04 21:33 41.61566 29.70425 14992 ft 326 kts 271°
2026-05-04 21:33 41.61445 29.67408 14727 ft 324 kts 271°
2026-05-04 21:34 41.61330 29.64408 14462 ft 323 kts 271°
2026-05-04 21:34 41.61219 29.61421 14205 ft 321 kts 272°
2026-05-04 21:34 41.60952 29.58456 13935 ft 324 kts 259°
2026-05-04 21:34 41.59952 29.55757 13664 ft 329 kts 232°
2026-05-04 21:35 41.58308 29.53621 13376 ft 330 kts 222°
2026-05-04 21:35 41.56545 29.51656 13106 ft 330 kts 221°
2026-05-04 21:35 41.54779 29.49697 12843 ft 330 kts 221°
2026-05-04 21:35 41.53026 29.47735 12562 ft 329 kts 222°
2026-05-04 21:36 41.51281 29.45770 12258 ft 328 kts 222°
2026-05-04 21:36 41.49542 29.43808 11967 ft 327 kts 222°
2026-05-04 21:36 41.47810 29.41851 11713 ft 326 kts 223°
2026-05-04 21:36 41.46086 29.39902 11445 ft 325 kts 223°
2026-05-04 21:37 41.44383 29.37977 11181 ft 324 kts 223°
2026-05-04 21:37 41.42621 29.36044 10912 ft 324 kts 219°
2026-05-04 21:37 41.40827 29.34311 10744 ft 319 kts 218°
2026-05-04 21:37 41.39024 29.32608 10597 ft 310 kts 218°
2026-05-04 21:38 41.37304 29.30977 10369 ft 305 kts 217°
2026-05-04 21:38 41.35414 29.29760 10122 ft 302 kts 192°
2026-05-04 21:38 41.33344 29.29525 10000 ft 298 kts 178°
2026-05-04 21:38 41.31262 29.29546 9975 ft 300 kts 177°
2026-05-04 21:39 41.29174 29.29576 9968 ft 300 kts 178°
2026-05-04 21:39 41.27090 29.29594 9971 ft 300 kts 178°
2026-05-04 21:39 41.25001 29.29607 9975 ft 300 kts 177°
2026-05-04 21:39 41.22923 29.29411 9980 ft 301 kts 192°
2026-05-04 21:40 41.20924 29.28627 9975 ft 299 kts 200°
2026-05-04 21:40 41.18971 29.27636 9970 ft 305 kts 208°
2026-05-04 21:40 41.17119 29.26278 9866 ft 301 kts 214°
2026-05-04 21:40 41.15384 29.24753 9621 ft 296 kts 218°
2026-05-04 21:41 41.13711 29.23128 9346 ft 293 kts 220°
2026-05-04 21:41 41.12095 29.21488 9164 ft 292 kts 221°
2026-05-04 21:41 41.10502 29.19862 9031 ft 293 kts 220°
2026-05-04 21:41 41.08861 29.18206 8896 ft 293 kts 220°
2026-05-04 21:42 41.07254 29.16610 8771 ft 292 kts 220°
2026-05-04 21:42 41.05623 29.15011 8727 ft 292 kts 219°
2026-05-04 21:42 41.03969 29.13401 8674 ft 292 kts 219°
2026-05-04 21:42 41.02333 29.11811 8654 ft 292 kts 219°
2026-05-04 21:43 41.00720 29.10243 8611 ft 291 kts 219°
2026-05-04 21:43 40.99084 29.08659 8572 ft 292 kts 219°
2026-05-04 21:43 40.97446 29.07074 8515 ft 292 kts 219°
2026-05-04 21:43 40.95808 29.05485 8383 ft 291 kts 219°
2026-05-04 21:44 40.94181 29.03900 8274 ft 290 kts 220°
2026-05-04 21:44 40.92569 29.02338 8195 ft 282 kts 220°
2026-05-04 21:44 40.91216 29.00548 8064 ft 269 kts 244°
2026-05-04 21:44 40.90532 28.98323 7976 ft 258 kts 261°
2026-05-04 21:45 40.90060 28.96036 7879 ft 258 kts 262°
2026-05-04 21:45 40.89602 28.93739 7775 ft 258 kts 262°
2026-05-04 21:45 40.89134 28.91445 7673 ft 258 kts 262°
2026-05-04 21:45 40.88661 28.89160 7573 ft 258 kts 261°
2026-05-04 21:46 40.88184 28.86881 7463 ft 257 kts 261°
2026-05-04 21:46 40.87717 28.84610 7353 ft 254 kts 263°
2026-05-04 21:46 40.87600 28.82342 7179 ft 242 kts 288°
2026-05-04 21:46 40.88268 28.80431 6959 ft 223 kts 318°
2026-05-04 21:47 40.89465 28.79219 6748 ft 215 kts 337°
2026-05-04 21:47 40.90802 28.78353 6534 ft 214 kts 340°
2026-05-04 21:47 40.92150 28.77519 6300 ft 213 kts 339°
2026-05-04 21:47 40.93441 28.76682 6253 ft 201 kts 336°
2026-05-04 21:48 40.94617 28.75760 6181 ft 192 kts 334°
2026-05-04 21:48 40.95743 28.74842 6108 ft 190 kts 334°
2026-05-04 21:48 40.96902 28.74033 6003 ft 187 kts 343°
2026-05-04 21:48 40.98138 28.73568 5863 ft 183 kts 353°
2026-05-04 21:49 40.99400 28.73362 5722 ft 181 kts 359°
2026-05-04 21:49 41.00638 28.73285 5547 ft 174 kts
2026-05-04 21:49 41.01839 28.73249 5287 ft 172 kts
2026-05-04 21:49 41.03025 28.73227 5014 ft 169 kts
2026-05-04 21:50 41.04199 28.73204 4748 ft 168 kts
2026-05-04 21:50 41.05361 28.73181 4484 ft 166 kts
2026-05-04 21:50 41.06497 28.73159 4264 ft 161 kts
2026-05-04 21:50 41.07619 28.73136 4052 ft 161 kts
2026-05-04 21:51 41.08738 28.73115 3835 ft 161 kts
2026-05-04 21:51 41.09858 28.73092 3619 ft 161 kts 360°
2026-05-04 21:51 41.10982 28.73071 3389 ft 162 kts 360°
2026-05-04 21:51 41.12108 28.73050 3146 ft 162 kts 359°
2026-05-04 21:52 41.13235 28.73027 2923 ft 162 kts 359°
2026-05-04 21:52 41.14355 28.73004 2713 ft 158 kts 359°
2026-05-04 21:52 41.15420 28.72985 2522 ft 149 kts 359°
2026-05-04 21:52 41.16429 28.72966 2277 ft 140 kts 359°
2026-05-04 21:53 41.17369 28.72947 2109 ft 133 kts 358°
2026-05-04 21:53 41.18293 28.72929 1934 ft 135 kts 358°
2026-05-04 21:53 41.19242 28.72912 1746 ft 137 kts 357°
2026-05-04 21:53 41.20195 28.72893 1553 ft 137 kts 357°
2026-05-04 21:54 41.21151 28.72874 1376 ft 138 kts 357°
2026-05-04 21:54 41.22110 28.72855 1172 ft 138 kts 357°
2026-05-04 21:54 41.23077 28.72836 997 ft 139 kts 357°
2026-05-04 21:54 41.24054 28.72817 798 ft 141 kts 356°
2026-05-04 21:55 41.25040 28.72792 602 ft 141 kts 356°
2026-05-04 21:55 41.26019 28.72775 405 ft 140 kts 358°
2026-05-04 21:55 41.26975 28.72765 326 ft 129 kts 359°
2026-05-04 21:55 41.27671 28.72749 320 ft 60 kts 359°
2026-05-04 21:56 41.27959 28.72778 316 ft 32 kts 20°
2026-05-04 21:56 41.28131 28.72891 300 ft 17 kts 45°
2026-05-04 21:56 41.28126 28.72953 295 ft 7 kts 146°
2026-05-04 21:56 41.28080 28.72966 297 ft 7 kts 173°
2026-05-04 21:57 41.28032 28.72967 295 ft 7 kts 179°
2026-05-04 21:57 41.27982 28.72967 297 ft 7 kts 180°
2026-05-04 21:57 41.27927 28.72968 300 ft 10 kts 179°
2026-05-04 21:57 41.27855 28.72970 299 ft 11 kts 179°
2026-05-04 21:58 41.27761 28.72972 304 ft 16 kts 179°
2026-05-04 21:58 41.27641 28.72974 309 ft 19 kts 179°
2026-05-04 21:58 41.27500 28.72976 311 ft 20 kts 178°
2026-05-04 21:58 41.27357 28.72980 314 ft 21 kts 179°
2026-05-04 21:59 41.27261 28.72981 316 ft 21 kts 180°
2026-05-04 21:59 41.27113 28.72986 315 ft 21 kts 179°
2026-05-04 21:59 41.26991 28.72990 317 ft 14 kts 173°
2026-05-04 21:59 41.26956 28.73032 316 ft 8 kts 103°
2026-05-04 22:00 41.26953 28.73142 315 ft 14 kts 89°
2026-05-04 22:00 41.26955 28.73274 318 ft 17 kts 89°
2026-05-04 22:00 41.26956 28.73443 319 ft 19 kts 89°
2026-05-04 22:00 41.26958 28.73632 319 ft 21 kts 88°
2026-05-04 22:01 41.26961 28.73827 318 ft 20 kts 89°
2026-05-04 22:01 41.26960 28.73969 319 ft 12 kts 101°
2026-05-04 22:01 41.26915 28.74014 319 ft 9 kts 172°
2026-05-04 22:01 41.26837 28.74015 319 ft 13 kts 179°
2026-05-04 22:02 41.26731 28.74016 319 ft 17 kts 180°
2026-05-04 22:02 41.26605 28.74019 319 ft 19 kts 179°
2026-05-04 22:02 41.26496 28.74026 319 ft 9 kts 160°
2026-05-04 22:02 41.26478 28.74056 319 ft 4 kts 109°
2026-05-04 22:03 41.26473 28.74121 319 ft 4 kts 89°
2026-05-04 22:03 41.26473 28.74129 319 ft 2 kts 89°
2026-05-04 22:03 41.26473 28.74130 319 ft 0 kts 89°